GFSSGP_sfc_thetae_000.txt.gz
Theta_e
318 315 319 312 303 304 300 300 304 302 304 313 320 319 319 322 317 312 340 344 343 343 343 343 344 343 344 346 348 350 349 350 350 350 349 349 349 347 345 347 348 349 348 348 348 349 349 348 349
316 311 312 310 301 297 299 303 301 304 305 307 315 321 318 317 328 332 335 343 341 342 343 342 343 344 344 346 346 347 347 347 347 348 349 346 345 338 331 344 345 347 348 348 348 348 347 345 347
313 307 307 306 303 298 301 302 301 303 305 307 315 322 321 321 332 334 341 343 344 343 343 343 343 343 345 345 346 346 347 346 346 345 346 345 348 343 338 345 346 348 348 347 346 345 346 345 344
311 309 307 301 296 298 299 301 302 302 307 313 318 318 326 326 331 339 342 343 342 343 343 342 341 343 344 344 344 346 345 345 345 346 344 345 344 344 346 344 345 344 344 344 343 342 343 342 341
312 308 301 298 296 299 301 302 303 305 310 314 317 317 321 324 336 341 341 340 340 341 342 345 341 343 342 340 340 343 344 343 343 342 344 344 344 344 344 344 342 345 343 343 342 344 341 339 340
306 307 298 295 296 299 302 304 306 309 311 313 318 318 320 331 333 339 342 341 341 341 342 344 341 340 341 340 340 340 341 341 341 341 342 343 343 342 341 343 343 344 345 344 342 341 339 338 338
304 303 297 297 297 298 300 304 305 305 309 309 314 313 323 324 323 327 339 339 338 337 338 341 342 341 338 337 336 337 338 339 340 340 341 341 341 341 341 341 341 342 342 341 340 339 338 336 335
308 304 297 297 296 296 302 304 306 307 305 310 312 312 316 320 321 327 326 332 334 334 335 338 341 341 341 341 331 332 333 335 336 339 337 336 337 338 338 336 338 340 340 340 339 337 336 335 334
305 300 296 296 296 298 303 301 308 310 308 309 311 314 318 322 322 328 327 326 330 327 328 335 338 339 338 336 331 335 335 334 334 335 333 334 339 336 336 327 328 333 335 336 337 336 334 333 331
306 299 297 301 302 301 302 303 304 305 307 309 312 314 317 321 324 322 320 319 317 318 320 325 332 334 336 331 334 341 340 339 338 338 337 338 336 333 329 325 326 324 324 323 333 333 331 330 333
305 299 301 303 305 305 302 302 305 304 302 307 310 312 314 316 316 315 313 313 315 316 318 319 323 328 333 334 338 337 334 335 334 334 334 334 328 326 332 325 323 322 321 323 321 331 332 332 332
301 304 305 305 304 303 302 305 303 304 305 309 313 314 313 312 311 310 310 310 312 315 314 314 320 325 328 329 330 329 328 327 327 330 333 334 331 332 327 326 324 320 322 321 322 325 325 329 332
303 304 306 306 305 305 304 303 302 304 306 308 309 308 309 309 309 309 309 310 310 311 312 311 315 319 322 324 323 323 322 321 321 322 327 328 329 329 329 323 324 322 324 323 322 324 326 326 327
306 306 306 307 306 305 304 304 304 305 307 306 306 307 308 307 307 308 307 308 308 309 309 309 311 316 317 320 319 318 317 315 316 317 321 325 326 328 329 323 322 325 326 327 325 325 325 326 326
306 302 305 304 305 304 305 302 302 306 307 306 306 307 307 307 307 307 308 308 308 307 308 308 309 312 313 315 314 312 311 311 312 315 320 321 322 324 323 321 319 319 323 324 326 325 326 328 327
302 302 297 302 303 304 303 296 303 307 306 305 307 307 306 307 307 308 308 308 308 306 306 307 305 309 310 311 311 310 310 311 312 315 316 316 316 317 317 317 317 318 318 317 315 314 316 320 321
299 294 295 297 302 301 300 297 302 306 305 304 306 307 307 307 307 308 308 308 307 306 305 306 307 307 308 309 309 311 311 310 310 312 312 312 311 312 311 312 313 313 311 312 311 311 315 314 314
293 294 295 295 299 299 298 298 303 305 304 304 305 306 307 307 307 308 307 307 307 307 305 306 306 307 307 307 308 308 309 310 310 309 309 309 310 309 309 309 310 309 307 305 306 306 307 309 312
297 295 295 297 299 297 298 299 301 304 304 304 304 305 306 307 309 308 307 307 306 306 305 305 305 306 306 305 305 306 306 307 309 309 308 308 309 308 309 308 307 308 306 306 305 304 304 304 307
297 296 296 297 299 297 298 297 302 301 301 302 303 304 305 306 306 306 307 307 306 306 306 305 305 306 306 306 306 307 306 306 308 308 308 308 308 308 307 306 305 306 305 305 305 305 302 302 304
298 295 295 294 298 300 297 298 299 301 302 302 303 304 304 303 305 305 305 306 307 306 307 306 305 305 306 306 305 305 305 305 304 305 306 307 308 308 309 307 307 306 306 304 305 304 303 300 301
294 297 296 295 294 291 296 290 297 299 300 302 303 304 305 304 304 303 305 305 306 307 308 306 306 305 305 306 304 304 302 301 303 304 305 306 307 308 308 308 308 308 307 305 304 303 304 302 300
295 298 296 295 293 293 293 291 297 299 297 299 302 303 304 305 304 304 304 305 306 307 308 307 305 305 304 305 305 304 303 303 304 304 304 305 306 306 306 307 307 308 307 306 306 305 304 303 301
298 298 298 294 293 288 291 291 295 298 297 300 302 303 304 305 305 305 304 304 305 307 307 307 305 304 304 304 304 304 303 303 301 302 301 301 302 302 303 303 304 304 304 304 304 305 304 304 302
299 296 291 289 290 288 292 290 295 300 300 300 301 302 304 305 305 306 305 303 304 305 305 304 303 302 303 303 303 303 303 302 300 299 299 298 298 298 299 300 299 299 300 300 300 301 301 302 301
294 294 290 282 285 288 294 288 296 301 302 303 302 302 304 305 307 306 305 304 304 304 304 304 302 301 302 301 301 301 300 299 299 296 298 297 296 295 297 296 297 297 297 298 298 297 298 299 301
294 294 295 288 285 284 291 294 299 302 301 301 302 303 304 305 306 305 305 304 304 304 304 304 302 301 300 300 299 298 298 296 295 296 296 296 296 295 295 296 295 296 296 296 297 296 297 298 300
296 297 291 292 284 282 289 291 293 298 299 301 302 303 304 305 306 306 306 306 305 305 304 304 302 299 298 298 297 296 295 295 295 295 295 295 295 295 294 294 294 294 294 295 295 295 296 296 298
296 295 292 292 290 285 284 289 300 299 301 301 302 303 304 306 306 306 306 307 307 304 301 299 298 298 296 296 295 295 294 294 294 294 294 294 294 293 293 293 293 292 292 293 293 293 294 293 294
297 295 294 289 288 290 286 287 302 303 303 301 302 304 305 306 306 306 306 306 303 299 298 297 297 296 296 295 294 294 294 293 293 293 293 294 292 293 292 292 291 291 291 291 291 291 292 291 292

GFSSGP_sfc_thetae_003.txt.gz
Theta_e
321 319 317 314 304 304 301 302 307 304 307 318 319 318 319 321 318 313 336 342 343 343 343 342 342 341 344 347 348 349 350 351 350 349 351 349 346 339 343 342 341 342 345 345 348 348 347 346 347
317 313 313 310 301 298 300 305 303 305 307 313 319 317 318 319 327 331 334 343 344 342 342 342 341 342 342 344 345 347 348 348 349 349 348 349 343 338 335 335 334 341 343 344 345 345 346 347 346
316 313 307 305 302 299 299 304 305 306 308 311 315 323 322 322 330 332 340 342 343 341 341 342 343 343 342 342 343 345 346 346 346 348 348 346 345 336 334 334 337 340 344 346 346 344 346 345 343
312 310 309 302 299 302 303 304 305 306 310 313 316 318 326 332 332 336 341 342 341 342 343 341 343 342 341 338 340 343 343 343 344 346 347 346 345 338 335 334 340 343 344 344 345 344 343 341 341
312 309 303 300 299 301 304 306 308 306 312 313 316 316 321 332 339 339 339 341 340 342 343 343 342 342 341 339 338 340 343 342 342 343 344 344 343 343 342 341 341 343 339 339 340 341 339 338 340
307 308 300 297 298 302 305 308 309 310 312 315 316 319 322 334 336 339 339 338 339 340 342 343 340 340 339 339 339 338 339 340 341 341 341 342 342 341 340 341 342 341 340 340 342 340 338 337 336
306 304 300 299 299 299 302 307 305 306 309 311 317 313 324 328 335 338 339 339 337 337 339 342 343 340 338 335 334 334 336 336 338 340 340 340 340 340 338 333 334 335 337 336 337 338 337 334 335
308 308 299 300 298 298 303 306 307 306 304 313 314 312 317 327 335 336 337 338 339 339 338 339 341 340 341 341 332 333 334 334 336 337 336 335 338 337 330 330 329 328 329 327 331 334 334 334 334
310 302 298 298 299 300 304 303 308 310 307 308 311 313 323 331 334 333 333 333 333 332 334 339 340 340 338 335 331 334 336 334 335 334 332 332 338 336 335 328 327 327 326 325 325 321 329 332 332
306 302 299 303 303 302 303 304 305 305 306 308 310 318 325 328 327 326 326 325 323 323 324 329 335 338 337 333 333 339 338 337 337 337 337 337 337 336 334 331 327 327 326 324 322 320 320 328 332
307 301 302 304 306 306 305 304 306 305 303 306 308 313 320 323 324 323 321 320 319 321 323 324 330 335 337 335 336 336 336 336 335 336 335 334 332 333 332 333 333 331 324 327 321 319 319 318 320
303 305 305 306 307 306 305 307 305 306 307 310 312 315 318 318 318 318 316 314 316 319 320 320 326 332 332 333 333 333 331 331 330 332 333 332 330 331 332 329 329 329 329 325 322 320 320 319 320
305 305 307 307 307 307 308 306 306 307 309 311 313 314 315 315 315 314 314 315 315 316 319 318 322 327 330 329 327 326 324 323 323 324 326 327 326 328 329 326 326 325 326 325 325 322 320 323 324
307 307 308 308 308 308 305 305 306 308 311 310 310 311 312 312 312 312 312 313 313 314 316 316 320 322 324 324 323 321 320 318 318 320 322 325 325 327 326 326 324 322 325 327 327 326 325 325 325
308 305 306 307 306 306 307 303 304 308 309 308 309 310 311 312 312 311 313 313 314 314 315 315 316 319 319 319 317 315 314 315 316 318 321 320 320 320 319 318 318 318 321 322 320 317 322 325 326
304 305 299 304 304 305 304 297 305 309 308 307 308 309 310 311 312 313 313 313 314 313 312 313 309 314 315 315 314 313 313 314 315 317 317 317 316 316 317 316 315 315 315 315 315 315 316 318 321
302 297 297 299 304 303 302 299 305 308 307 306 307 308 310 311 311 312 313 313 313 313 312 311 311 311 312 313 312 314 314 312 313 314 313 314 312 312 312 312 312 311 310 309 307 307 310 309 313
296 297 299 299 302 302 301 301 305 308 307 307 307 308 308 309 311 312 313 313 313 313 311 311 311 311 311 310 311 311 311 312 312 312 311 312 310 310 310 310 311 310 308 307 307 306 306 305 306
300 299 299 302 303 301 301 302 304 307 306 305 306 307 308 309 312 313 313 313 312 312 310 309 309 310 309 308 307 308 308 309 310 310 310 310 309 309 310 308 308 309 307 307 308 307 306 304 305
301 300 299 302 304 302 302 301 305 304 304 304 305 306 307 308 309 311 312 312 312 311 310 309 309 309 309 308 309 309 309 308 309 310 310 310 310 310 309 308 307 307 306 308 307 306 304 304 306
301 299 298 298 302 304 301 300 302 303 306 305 306 307 307 306 307 308 309 311 312 312 311 310 309 309 309 309 308 307 308 307 306 307 308 310 310 310 310 309 308 308 307 305 307 306 304 301 305
297 301 300 299 298 294 302 292 300 302 302 303 305 306 307 308 308 308 308 310 311 312 313 312 311 310 309 309 307 308 304 303 305 307 307 307 309 309 309 309 308 307 307 306 307 305 307 306 301
298 302 300 300 298 297 297 294 300 302 299 302 304 305 307 308 308 308 309 310 311 313 313 313 311 310 309 309 309 307 306 306 305 306 306 307 307 308 307 307 307 306 306 307 308 308 308 306 305
302 302 303 301 298 292 297 294 296 300 300 301 304 306 306 308 309 309 311 311 310 312 313 313 311 310 309 308 307 307 306 306 304 305 304 305 305 305 305 303 304 304 304 303 305 307 306 305 305
303 299 294 292 292 291 297 294 297 302 303 303 303 304 306 308 308 309 309 309 310 309 311 311 310 309 309 308 308 308 307 306 304 303 301 300 299 300 300 301 302 300 300 300 300 301 302 301 300
299 298 292 284 287 290 297 291 297 304 304 304 304 305 306 308 309 309 309 310 309 310 310 310 309 308 308 307 306 306 305 303 303 301 299 298 298 298 299 298 298 298 298 298 299 299 299 300 300
299 297 299 292 293 288 293 298 302 305 303 303 304 306 307 307 308 309 310 310 310 309 310 311 310 309 308 306 307 305 304 302 299 299 299 298 298 297 297 297 296 296 297 296 296 298 298 299 300
300 302 294 295 285 284 292 293 295 300 302 304 304 304 305 308 308 309 309 309 310 310 311 312 310 308 307 305 304 301 300 299 298 298 297 296 297 296 296 295 295 295 295 295 296 296 296 297 298
299 298 297 296 294 287 286 291 303 302 304 304 305 305 307 307 307 308 308 309 310 311 309 308 307 305 305 303 301 299 298 297 296 295 296 296 296 295 294 294 294 294 294 294 294 294 295 295 295
300 299 299 292 290 293 292 290 305 305 305 304 305 306 307 307 308 308 308 309 309 309 306 305 304 302 301 300 298 296 296 295 295 295 295 296 294 294 294 294 293 292 292 292 292 292 292 292 292

GFSSGP_sfc_thetae_006.txt.gz
Theta_e
318 317 317 312 301 301 297 300 306 304 306 316 317 318 317 320 316 311 336 341 343 341 340 334 343 342 344 347 349 350 351 350 351 351 350 349 344 345 345 343 340 341 334 333 340 345 346 347 347
314 315 311 307 298 295 298 304 302 303 306 312 316 318 319 317 328 329 334 341 342 341 338 337 343 343 341 343 344 348 349 349 349 349 348 346 343 341 342 337 335 336 339 337 340 342 343 345 343
315 315 304 302 299 297 298 303 304 305 308 310 313 323 320 320 327 330 339 342 342 341 340 339 342 342 342 342 344 345 346 346 347 347 347 346 344 340 340 340 337 339 343 345 341 337 342 342 341
311 309 305 299 298 301 302 304 305 305 309 311 314 317 326 332 329 335 339 341 340 341 341 340 342 342 341 340 342 344 344 344 345 346 347 348 340 338 335 334 335 341 340 338 334 333 339 340 339
310 306 299 298 297 300 304 306 307 305 310 311 314 314 320 332 337 336 337 338 338 340 342 340 341 342 342 341 342 342 343 343 343 344 345 344 344 343 341 341 342 342 337 330 331 330 335 336 339
304 306 297 295 297 301 304 308 308 308 311 313 312 312 321 334 334 337 336 335 338 339 342 341 341 341 341 340 339 339 340 341 342 342 342 343 342 342 340 340 341 340 338 336 334 336 338 337 338
303 302 298 298 297 299 301 307 305 306 309 309 315 313 318 325 335 337 335 335 335 336 338 340 341 340 338 336 336 336 337 338 339 340 339 340 340 337 336 336 335 333 333 335 337 337 337 337 337
306 304 299 299 297 297 303 305 307 305 303 309 309 309 313 325 334 336 335 335 338 337 336 338 340 341 337 332 333 333 336 337 337 338 338 339 337 334 332 332 332 331 332 328 327 326 331 335 335
310 300 296 297 298 299 304 302 307 309 306 308 309 313 325 331 333 331 330 330 332 330 333 338 337 340 339 337 333 334 336 336 335 335 335 333 337 334 331 329 330 328 327 327 325 323 324 326 330
305 300 298 302 302 302 303 303 304 304 305 306 309 314 322 327 327 325 323 324 324 324 324 328 333 336 337 334 332 339 337 336 336 336 334 334 334 331 330 329 328 327 325 324 323 321 320 321 320
305 299 302 304 304 304 303 303 306 303 302 307 306 311 316 319 320 322 322 320 319 321 323 324 331 335 337 336 336 335 334 334 334 334 333 331 329 329 329 329 328 327 323 322 321 320 318 317 319
302 304 305 306 306 305 304 307 305 306 305 310 311 313 314 315 317 319 320 318 317 320 320 323 330 332 333 332 330 331 329 330 328 329 330 329 327 326 325 325 323 323 324 322 321 318 317 316 319
304 305 307 308 308 307 307 305 305 305 309 311 311 313 313 314 316 317 320 319 321 319 320 320 325 328 330 328 328 326 324 323 322 323 323 326 324 324 323 322 321 321 321 320 320 319 318 317 319
307 307 306 307 307 307 305 304 305 306 310 309 309 310 312 313 314 315 313 313 315 316 318 320 321 325 325 326 325 323 321 319 319 319 321 323 323 322 322 320 319 318 319 319 321 320 321 321 321
307 304 307 307 305 303 306 301 301 308 310 307 307 309 310 311 312 312 313 313 314 316 317 317 319 322 322 322 320 319 316 316 316 318 318 318 320 316 315 314 314 314 315 315 315 315 315 317 321
304 305 298 304 304 305 303 296 304 308 307 305 307 308 309 310 311 312 314 313 315 317 314 316 313 316 317 317 315 314 314 315 315 317 317 315 315 315 313 312 311 310 311 310 307 307 308 311 313
302 296 298 300 306 303 302 298 304 308 306 305 307 307 308 309 311 312 313 314 314 315 314 313 313 312 314 314 313 313 314 312 314 315 314 313 312 312 309 310 310 309 307 306 304 303 303 302 303
295 296 299 299 303 303 301 300 305 307 307 306 307 308 308 308 309 312 313 314 314 316 314 313 312 312 313 312 312 312 312 312 311 312 311 311 310 309 308 308 308 307 306 305 304 303 303 303 302
300 299 298 301 304 302 300 301 304 306 305 305 306 307 307 309 311 314 315 315 313 314 312 311 310 311 310 309 308 307 307 309 310 310 311 310 309 309 308 307 306 307 305 304 304 303 302 301 303
299 298 298 301 303 302 301 301 304 304 304 305 305 306 307 308 309 311 313 314 313 312 312 311 310 310 309 308 308 308 309 308 308 309 309 309 310 309 308 307 305 305 304 304 304 303 300 301 301
298 298 297 297 301 304 301 299 302 303 304 305 306 307 307 307 307 309 312 313 314 312 312 312 310 310 310 309 308 308 308 306 305 306 306 308 309 310 309 308 306 305 305 303 303 302 301 298 300
295 302 300 299 298 293 301 291 299 301 301 303 305 307 307 308 309 309 311 310 313 312 314 313 312 310 310 310 306 306 303 301 303 304 305 306 309 308 308 307 307 305 304 303 303 304 302 300 297
298 302 301 301 299 297 298 293 298 301 299 301 305 306 307 308 309 308 308 310 312 312 313 313 312 311 310 310 308 305 304 304 304 305 305 305 305 306 306 306 306 304 304 303 301 301 301 301 299
304 302 302 303 298 292 297 295 295 298 300 302 304 306 307 307 308 308 309 310 309 312 312 313 312 310 311 310 309 307 303 304 303 303 302 303 303 303 304 303 301 301 300 299 298 298 298 298 297
302 298 292 291 293 291 298 294 296 303 304 303 303 304 307 308 308 308 308 309 309 310 311 313 311 309 310 310 309 307 306 305 303 303 302 301 299 299 299 299 298 298 297 297 297 296 295 295 295
299 297 293 284 286 288 296 291 296 304 305 305 305 307 307 308 309 308 310 311 310 311 311 310 309 308 309 309 308 307 306 304 303 303 301 298 297 298 298 297 297 297 297 296 296 295 294 294 294
298 296 300 292 292 289 292 297 303 305 304 304 305 306 306 307 309 309 310 310 310 310 310 310 309 310 309 309 308 307 305 304 301 302 299 298 298 297 298 297 296 296 296 295 294 293 293 294 293
300 303 293 295 285 283 289 291 293 300 302 304 305 306 307 308 308 309 309 309 309 310 311 311 310 307 306 306 306 303 302 301 299 298 297 297 296 296 296 295 295 294 294 293 293 291 292 292 292
298 296 298 297 294 286 284 289 301 300 302 304 304 306 306 307 308 308 309 309 309 310 308 308 306 304 304 303 303 300 299 299 297 296 296 295 296 295 295 294 293 293 292 292 291 290 291 290 290
300 298 298 290 289 292 290 289 303 305 306 305 306 306 307 307 307 306 307 307 307 307 307 307 304 303 302 301 299 298 297 296 295 295 295 296 295 295 294 293 293 292 291 291 290 289 289 289 288

GFSSGP_sfc_thetae_009.txt.gz
Theta_e
313 308 307 303 293 290 287 292 295 298 301 316 320 318 316 317 314 309 334 337 338 333 333 338 341 343 345 347 349 350 349 350 351 350 349 348 348 347 345 345 346 346 340 339 339 343 341 342 342
312 310 302 297 290 285 289 294 294 297 302 314 316 312 315 316 328 329 331 338 337 334 335 338 341 342 344 345 346 347 347 347 348 349 349 346 345 345 343 341 336 336 336 339 342 342 337 339 340
313 310 295 292 287 286 291 295 296 299 303 305 314 314 318 317 326 331 337 339 337 333 336 339 340 339 341 344 345 345 346 346 346 347 348 347 342 340 340 342 338 338 339 342 338 337 340 340 340
306 299 296 289 286 292 295 298 300 301 304 314 319 315 323 330 327 333 337 337 334 333 335 338 339 339 340 344 345 344 344 344 344 345 347 344 342 339 337 335 335 338 341 343 340 333 337 338 336
302 296 289 288 289 295 298 300 301 303 308 313 315 313 318 329 332 332 333 336 334 334 335 337 338 340 342 341 341 342 342 341 343 343 344 345 343 340 338 338 340 342 336 336 336 337 333 330 335
294 294 287 286 289 295 297 298 300 302 306 310 313 314 318 331 332 332 332 333 336 335 334 336 339 339 339 339 338 338 339 340 340 340 342 342 342 342 340 341 340 340 336 332 330 331 331 330 330
292 290 288 289 290 293 296 299 298 298 300 303 312 308 314 318 331 333 328 327 331 335 335 334 337 337 336 335 335 335 335 337 338 338 338 339 337 336 337 336 335 336 336 337 336 336 336 336 336
296 293 289 288 290 289 295 297 297 299 294 305 311 307 306 314 331 331 327 328 327 328 329 332 334 333 331 329 332 333 334 334 336 337 337 335 333 333 333 332 334 333 333 332 331 332 333 333 332
297 290 286 289 291 291 294 294 298 300 299 301 305 315 318 326 330 326 324 324 321 324 326 324 327 332 329 327 330 332 334 334 334 334 334 332 330 329 327 330 330 329 328 327 325 326 328 325 326
296 288 290 295 295 292 295 296 297 297 297 298 305 320 325 326 325 323 321 319 315 314 317 322 324 326 329 332 329 329 332 331 330 332 328 330 331 329 326 328 329 328 326 325 323 321 321 319 318
295 291 297 298 301 298 297 300 301 295 294 300 301 308 318 321 321 319 312 312 312 313 315 319 324 326 326 326 330 329 327 327 327 326 327 324 324 323 324 323 323 321 323 318 319 318 316 315 316
295 300 301 299 301 300 298 299 300 296 297 305 304 308 309 310 312 312 311 308 309 312 314 319 322 323 323 322 323 323 324 322 323 323 324 322 321 320 320 319 319 318 318 317 316 315 314 313 315
299 300 302 303 303 301 303 300 300 299 302 306 306 309 307 309 310 310 309 307 307 309 311 315 320 320 322 319 318 317 316 315 315 317 317 318 318 318 318 317 315 317 317 318 315 315 314 314 314
303 302 302 302 302 302 300 300 298 300 301 304 305 305 306 306 308 306 305 306 306 308 311 312 315 317 318 317 315 314 312 311 312 313 315 317 316 315 316 316 315 313 314 314 313 312 315 315 318
304 298 301 301 300 297 297 295 294 301 303 302 303 304 305 306 308 306 306 305 306 307 310 311 311 314 314 315 313 311 310 311 310 312 312 312 314 311 310 309 309 308 310 311 310 309 310 310 313
300 298 292 300 300 300 297 290 297 299 302 300 300 301 303 304 306 305 306 306 306 306 308 309 312 312 311 311 311 310 306 307 309 311 310 310 310 311 308 308 306 305 306 305 301 300 299 300 300
295 289 293 297 299 297 295 292 299 302 300 298 299 299 301 302 303 304 306 305 305 306 306 306 304 306 307 306 306 306 306 306 308 310 309 309 309 308 304 306 305 304 304 302 301 300 299 298 298
289 290 294 292 296 297 295 294 298 301 300 297 297 298 297 298 302 305 305 305 305 305 305 305 304 304 306 305 303 304 304 304 305 307 307 308 307 306 303 304 304 303 302 301 301 299 300 299 298
295 293 291 294 299 296 294 294 297 297 297 296 297 298 299 301 304 305 305 304 305 305 304 304 303 304 303 301 301 300 301 303 303 303 306 306 306 305 303 302 303 303 301 301 300 300 298 297 299
295 293 292 296 299 298 295 295 297 298 297 298 298 298 299 300 302 305 305 304 303 303 304 303 304 303 303 302 301 301 301 302 303 304 304 305 305 304 303 302 301 301 300 299 299 300 298 298 298
293 293 293 293 297 298 294 292 294 297 298 300 300 300 300 300 300 302 303 303 303 303 304 305 304 303 303 303 302 301 301 301 300 301 301 303 304 305 304 303 302 301 300 299 299 298 297 295 297
291 298 297 296 293 287 295 285 292 294 295 298 300 298 299 300 302 302 301 299 302 304 304 305 306 305 304 303 300 300 299 298 299 300 300 301 304 305 305 304 303 301 300 299 299 301 299 297 294
294 299 297 296 293 290 292 286 290 294 293 295 297 299 299 300 301 302 302 303 301 304 305 306 306 306 306 303 302 300 299 300 301 301 300 300 302 304 304 302 302 301 300 299 297 295 295 297 296
301 298 297 297 292 284 291 289 288 292 294 297 299 299 300 300 301 302 302 303 304 304 304 305 305 305 306 305 304 302 300 301 299 299 299 300 301 300 299 299 297 297 295 296 294 294 294 292 293
297 292 283 282 282 282 293 289 290 297 298 298 298 298 299 299 300 301 300 302 302 303 302 303 304 304 305 304 304 304 303 301 300 299 298 297 297 296 296 296 296 295 296 296 295 294 294 293 292
294 293 282 278 279 282 292 286 291 300 300 301 301 298 300 301 302 302 301 302 302 302 302 303 304 304 304 304 303 303 303 303 301 301 299 295 295 296 296 295 295 295 295 295 295 294 293 292 291
294 289 296 287 285 281 286 292 297 299 301 302 302 302 300 301 303 302 301 303 302 303 303 303 303 304 304 303 301 301 302 299 298 295 294 295 295 295 295 295 294 294 295 295 294 293 292 291 291
297 299 287 285 278 279 285 286 288 295 298 300 299 300 300 302 302 302 301 302 302 303 302 302 302 302 302 300 299 298 297 295 294 294 294 293 293 294 294 294 294 294 294 294 292 291 291 290 290
293 291 293 295 288 282 280 284 296 297 299 299 301 303 302 301 300 301 301 302 302 302 302 302 303 303 298 298 297 295 294 293 293 294 293 293 294 294 294 294 294 293 292 292 291 290 290 289 288
296 296 295 286 285 284 283 287 300 299 300 302 301 301 301 301 301 301 301 301 301 302 302 303 303 302 297 296 294 294 293 292 291 291 293 293 292 294 293 293 293 292 292 291 289 289 288 288 287

GFSSGP_sfc_thetae_012.txt.gz
Theta_e
311 305 303 300 292 288 285 288 293 296 307 317 320 316 313 316 313 305 333 333 331 329 334 337 342 345 347 349 349 349 350 351 351 350 348 348 349 348 347 345 345 341 340 340 343 343 345 342 341
309 308 299 294 287 284 287 292 294 301 314 316 314 319 318 318 327 328 329 332 332 333 335 336 341 344 345 346 346 346 347 348 348 349 349 348 348 347 345 341 337 335 336 342 343 343 341 340 340
307 307 294 290 285 285 288 294 295 305 312 311 316 319 321 317 328 329 334 333 332 332 335 336 338 341 344 344 345 345 344 345 346 347 347 345 345 343 342 340 338 339 339 340 340 342 341 339 336
303 297 293 288 284 289 293 296 297 300 313 318 317 314 323 327 326 333 336 334 331 330 331 335 336 339 343 345 344 344 344 343 343 345 346 344 342 340 337 336 335 339 340 343 340 340 339 337 334
298 293 287 286 287 292 295 298 303 307 309 313 313 310 317 326 333 335 334 334 331 329 333 335 336 339 341 342 342 342 341 342 342 343 343 344 342 341 340 339 338 340 338 338 338 338 337 337 332
294 292 286 284 287 293 294 297 299 303 310 312 312 313 314 326 327 332 335 334 335 331 333 335 338 338 338 339 339 338 339 339 340 341 341 341 340 340 340 339 340 339 335 331 330 331 333 332 333
292 288 285 285 288 291 294 297 295 296 297 305 312 305 313 317 328 329 332 333 334 333 332 333 334 336 336 335 334 334 336 337 338 338 339 337 336 336 336 336 337 337 337 337 336 332 332 334 333
293 290 284 285 288 287 295 296 297 297 293 312 312 305 304 316 326 328 325 328 329 332 332 330 331 332 328 329 333 332 333 334 336 336 335 333 333 334 334 334 334 334 333 332 333 334 334 332 331
294 288 285 286 289 290 294 293 297 298 299 300 310 311 313 318 329 325 322 322 321 327 327 330 330 330 327 324 329 332 334 333 334 334 334 330 328 327 327 330 332 330 328 327 326 325 326 324 325
292 286 288 294 293 289 293 293 294 295 297 302 312 319 322 326 324 323 320 317 313 318 319 320 323 326 327 329 327 327 331 330 329 329 329 329 326 324 325 327 329 327 326 325 323 322 321 318 315
296 291 295 296 297 294 295 297 299 294 294 302 311 317 321 321 321 321 320 315 312 313 317 320 323 324 323 325 325 327 326 326 326 327 325 325 323 323 322 320 322 319 322 317 317 315 314 313 313
294 297 298 297 298 297 295 295 298 299 297 304 316 320 319 319 320 317 310 310 309 311 314 319 322 322 320 322 325 324 323 323 322 322 322 320 319 318 318 318 318 317 316 314 314 313 313 311 311
296 297 300 301 301 299 300 297 298 297 299 302 307 310 314 314 313 311 308 307 309 309 313 317 319 320 319 317 315 314 315 316 316 316 317 318 319 317 317 316 313 314 314 314 313 317 318 315 313
300 300 300 300 300 299 298 297 296 299 299 301 305 304 305 306 308 305 304 305 306 308 311 315 316 318 318 315 314 311 311 310 311 313 314 316 316 315 316 314 314 312 313 312 310 309 309 309 311
301 296 299 300 298 296 296 292 293 297 300 300 302 303 304 305 306 306 305 304 305 307 309 312 313 314 313 315 313 311 309 309 310 311 311 312 313 310 311 310 309 310 310 310 307 306 304 303 305
298 295 290 297 299 298 294 289 296 297 298 298 299 301 303 304 305 304 305 304 304 305 308 309 314 312 312 313 312 310 309 307 308 310 309 309 311 310 307 306 305 304 306 305 299 299 297 297 297
292 287 289 295 298 296 293 291 297 298 298 298 297 297 299 299 301 302 304 303 303 305 307 306 307 309 308 308 308 306 306 304 306 309 308 309 309 308 304 306 304 303 303 300 299 298 298 296 297
287 288 291 289 295 296 293 293 296 297 296 296 296 296 296 299 301 303 302 303 303 303 304 304 301 305 305 303 302 302 302 302 303 307 307 308 307 307 302 304 303 302 301 300 299 297 298 298 297
292 290 289 292 296 295 292 292 296 295 293 294 294 296 297 299 301 301 302 302 302 302 303 303 302 301 302 300 299 298 300 301 301 303 308 307 306 305 302 301 303 302 300 299 299 298 297 296 297
293 291 290 294 297 295 294 293 293 294 294 295 296 295 297 298 300 302 301 300 302 301 301 301 302 302 301 300 299 299 299 300 301 302 302 306 305 304 302 301 301 300 300 299 299 299 297 296 296
291 291 291 291 294 295 294 291 292 295 296 297 297 297 297 298 299 301 302 300 299 300 301 303 302 301 302 301 300 299 299 299 299 299 300 302 304 304 303 301 301 299 299 298 297 297 296 294 296
289 295 295 293 291 286 293 284 290 292 293 296 296 296 296 298 300 300 299 298 300 301 301 302 304 303 302 302 299 298 299 299 300 300 299 301 303 303 303 302 301 300 299 298 298 298 296 295 293
292 296 295 294 290 288 290 285 289 292 292 293 295 297 296 297 298 299 299 301 301 302 303 304 305 304 305 303 301 299 297 300 301 298 298 298 300 302 303 302 301 300 299 296 294 293 291 294 292
299 296 294 294 290 283 289 287 286 290 292 295 296 298 298 297 298 300 301 300 301 301 302 303 303 304 304 304 303 300 299 300 299 299 297 297 298 297 298 299 297 296 296 295 294 293 292 292 293
295 290 282 281 281 281 291 288 287 293 296 297 297 296 297 299 299 299 299 300 299 299 300 302 302 303 305 303 302 302 301 301 299 299 298 299 297 295 294 294 294 294 294 295 295 295 294 294 293
293 291 281 278 279 282 290 284 289 297 299 300 299 298 299 299 299 299 300 300 301 302 301 303 304 304 304 303 302 302 301 301 301 300 299 296 296 295 295 294 294 295 296 296 296 295 294 294 292
293 288 294 285 283 280 285 290 295 297 298 301 300 300 299 300 299 299 300 300 300 301 301 301 301 301 303 302 301 299 298 299 298 295 294 295 294 295 294 295 295 296 296 296 295 293 292 293 292
295 296 286 284 275 279 284 285 287 293 296 299 299 297 297 298 299 299 300 300 300 300 301 301 301 302 302 301 297 297 295 295 293 292 291 292 293 295 295 296 297 296 295 294 293 292 291 290 290
292 290 291 292 285 279 279 283 293 295 297 296 297 297 296 297 298 299 300 302 303 303 303 302 300 300 300 298 296 294 292 292 291 291 291 292 294 295 295 295 295 294 293 293 292 290 290 288 288
295 292 292 281 284 282 284 285 298 296 298 298 296 298 298 298 298 299 300 300 300 300 299 299 300 299 297 294 294 293 291 291 290 290 291 292 293 293 294 293 293 292 292 291 289 288 288 286 285

GFSSGP_sfc_thetae_015.txt.gz
Theta_e
314 305 302 300 291 287 284 288 292 298 311 316 317 314 312 315 309 303 333 331 330 330 333 338 343 346 348 348 349 349 351 351 350 348 348 349 349 348 348 345 344 341 341 340 343 345 345 344 342
309 305 298 293 288 283 285 290 295 305 316 320 319 318 316 315 325 327 326 329 328 331 333 336 342 345 346 345 346 347 347 347 348 349 348 347 346 347 344 339 336 335 338 341 341 342 343 342 340
305 302 293 289 284 284 286 291 304 310 315 309 315 321 319 318 327 328 331 331 331 331 332 335 340 342 344 344 344 344 344 345 346 346 346 345 344 343 342 339 339 339 339 339 340 341 339 340 339
301 296 292 288 285 287 290 293 304 309 312 317 318 314 321 325 327 332 331 330 329 328 330 333 338 341 343 343 342 342 342 342 344 345 345 343 341 339 335 333 334 339 340 341 338 339 340 338 335
295 292 287 285 285 289 295 305 306 306 309 310 312 310 316 326 331 331 330 330 327 327 330 331 335 339 342 342 341 341 341 341 341 342 343 342 341 341 340 340 337 339 338 337 339 337 338 337 333
294 291 286 283 285 291 293 298 304 308 308 309 309 310 312 323 329 330 332 330 329 329 331 333 336 337 337 339 339 338 339 339 340 340 341 341 340 340 339 339 340 337 333 331 330 331 335 334 333
291 288 284 284 288 290 293 295 295 297 301 303 310 306 313 319 327 331 332 331 330 330 330 331 333 335 335 334 335 335 336 337 338 338 338 337 336 336 337 337 337 337 337 336 334 331 332 332 332
292 289 283 284 287 286 292 294 294 295 294 310 310 303 311 319 326 329 329 330 329 328 330 328 329 330 327 326 332 332 334 335 335 336 335 333 333 333 334 334 334 334 332 332 333 333 332 331 330
292 287 284 285 287 290 293 292 295 296 303 301 311 307 310 322 325 322 321 322 323 329 328 328 328 328 326 324 327 332 333 333 334 334 333 329 326 325 326 331 331 329 327 326 325 325 323 322 320
290 286 288 292 291 288 293 294 293 296 301 307 308 315 317 325 322 319 319 318 320 323 324 327 327 327 325 327 324 326 328 328 328 328 328 326 323 322 324 326 328 327 326 325 323 323 321 317 313
291 290 293 295 294 294 294 294 296 294 296 307 305 312 319 321 321 319 318 318 317 319 318 319 321 322 323 324 323 324 325 324 325 325 324 324 324 322 320 320 320 317 321 316 316 314 312 311 310
293 295 296 295 298 296 294 298 296 297 296 309 310 315 319 320 318 318 318 313 311 312 316 319 321 320 317 323 323 324 323 323 322 322 322 320 318 318 318 317 317 315 314 312 312 312 312 311 311
295 296 298 299 298 296 298 296 295 296 298 301 314 317 318 317 315 317 315 314 309 310 313 316 319 319 317 319 316 318 318 321 319 318 317 319 317 315 315 315 313 312 313 312 311 312 312 311 311
299 298 298 298 298 298 296 296 295 297 297 300 312 313 314 314 315 310 306 309 308 309 311 315 317 318 316 313 313 312 312 312 313 313 314 317 317 315 315 313 312 311 312 310 308 307 306 305 307
299 295 297 297 297 295 295 292 292 295 297 299 305 312 309 310 310 308 308 306 308 308 311 314 314 315 315 313 313 310 309 309 309 311 312 313 313 312 313 312 311 310 309 308 306 303 299 299 300
295 293 289 296 296 296 293 289 295 295 295 297 298 300 302 304 306 304 305 305 303 306 309 311 315 312 311 312 311 310 308 307 307 309 309 309 312 309 308 307 307 306 307 305 298 297 296 296 296
290 285 287 292 296 296 292 290 296 296 296 296 296 297 299 299 300 301 303 301 302 304 307 308 309 310 310 310 309 307 307 305 305 307 307 308 309 309 306 305 304 302 302 301 298 297 296 295 295
285 285 289 288 294 295 292 292 295 297 295 295 294 293 294 296 298 301 301 302 302 304 306 305 305 308 307 304 302 301 301 302 302 304 307 308 307 307 303 304 304 301 300 299 297 297 297 296 296
290 289 288 290 294 294 291 292 295 294 292 292 292 292 296 297 299 298 300 300 301 302 303 302 300 303 301 299 299 298 300 300 300 301 305 307 307 306 303 302 303 301 299 299 298 297 296 296 295
292 289 288 292 295 293 292 292 292 293 292 293 294 295 296 297 298 300 300 299 300 301 301 301 300 300 300 299 299 299 298 299 300 301 302 305 306 306 304 301 302 302 299 298 298 297 295 295 295
289 289 288 290 293 293 291 290 291 294 295 296 296 295 296 297 298 299 300 298 298 299 299 300 300 300 300 300 299 298 298 298 297 298 299 302 306 306 304 302 301 301 301 299 297 297 296 294 294
287 293 292 292 289 285 291 283 289 291 292 294 294 294 293 296 297 298 299 299 299 300 299 300 301 301 301 300 299 297 297 298 300 301 300 300 302 304 305 304 301 300 300 297 296 297 295 294 292
292 295 293 292 289 287 289 284 288 291 290 292 293 295 295 295 297 298 299 300 299 300 300 300 302 303 303 303 301 299 298 300 301 300 297 298 299 301 303 303 303 301 300 298 296 293 291 292 290
297 294 292 291 288 282 287 285 285 288 290 293 295 296 297 297 298 298 299 299 300 300 299 300 301 302 303 302 302 300 299 300 299 299 298 299 297 297 299 300 299 297 295 292 292 294 293 293 293
294 289 281 280 280 280 289 286 286 292 294 294 295 296 298 298 296 297 297 298 299 299 299 300 301 301 302 302 302 302 301 300 299 299 299 298 295 292 292 294 294 293 295 295 296 295 295 295 293
291 289 280 276 278 281 288 282 288 295 297 298 299 299 297 297 297 298 298 298 298 299 300 300 301 301 302 302 302 301 300 298 299 298 298 296 293 291 292 293 295 296 296 296 295 295 294 295 294
292 287 292 284 282 279 284 288 293 295 296 298 297 297 296 296 297 297 298 299 299 299 300 300 300 300 301 300 300 298 296 296 296 294 292 291 292 293 293 294 295 296 296 297 296 294 293 293 292
294 295 285 283 274 278 283 284 286 291 294 296 296 295 295 297 297 298 298 299 300 300 300 299 299 299 299 299 297 296 296 294 293 291 290 291 292 293 294 295 296 296 296 295 294 292 292 291 290
291 289 289 289 284 279 276 282 292 291 294 293 294 296 295 295 296 298 298 300 300 299 299 298 298 298 298 296 294 294 293 291 290 289 290 291 293 294 294 294 295 295 293 293 292 291 290 289 288
293 291 289 283 283 281 280 283 294 294 295 295 295 296 297 296 298 298 300 300 299 299 298 298 297 297 295 293 292 292 291 290 289 289 290 291 293 294 293 292 292 293 292 291 289 288 287 286 285

GFSSGP_sfc_thetae_021.txt.gz
Theta_e
316 307 308 306 299 298 292 296 298 311 313 320 320 315 315 319 311 306 334 335 335 337 342 343 345 346 347 349 350 350 351 350 350 349 348 348 348 347 345 341 338 340 341 342 342 342 344 342 342
313 305 305 300 297 296 298 299 300 313 319 321 321 320 318 315 327 328 331 333 333 334 338 342 343 344 345 346 347 348 349 350 349 349 348 348 347 346 343 338 337 338 340 339 340 341 343 342 341
308 302 303 297 293 294 301 303 313 318 317 317 319 323 322 320 328 330 332 331 332 332 337 341 341 342 343 343 344 345 346 347 347 348 348 347 346 344 341 337 336 338 340 340 340 342 341 340 339
306 304 301 300 295 296 300 311 316 315 316 322 321 315 325 330 330 334 331 332 331 331 336 338 339 340 341 342 342 341 342 344 344 345 345 343 341 339 336 335 335 337 340 341 340 341 340 337 335
301 301 298 296 297 301 305 313 316 313 313 316 317 315 320 330 334 332 332 332 330 330 333 337 337 339 341 340 339 340 341 340 341 342 343 343 342 341 340 336 337 339 337 336 337 337 338 336 333
300 300 296 295 295 297 303 309 311 311 312 314 316 316 320 331 331 332 332 332 330 329 332 335 337 338 339 339 338 338 338 338 339 340 340 339 339 338 338 338 338 337 337 336 333 334 333 333 333
298 296 291 291 293 296 299 300 308 309 310 309 317 314 321 329 332 333 333 331 331 332 333 334 335 336 334 334 334 335 336 337 337 337 336 335 336 336 336 336 336 335 336 336 335 333 331 330 329
298 297 291 292 292 293 297 299 300 302 305 313 315 312 317 328 334 334 333 331 331 333 333 335 336 335 334 334 332 333 334 335 335 335 333 332 333 333 333 334 332 332 331 331 330 328 326 325 324
298 294 290 292 293 296 299 299 300 305 311 308 314 317 318 332 333 332 331 330 331 331 334 335 335 335 334 332 332 333 333 334 334 335 332 331 335 333 332 331 330 329 327 327 326 325 323 320 320
298 294 294 296 296 298 299 299 299 303 307 310 312 317 323 330 331 330 329 329 330 331 334 335 336 336 335 332 332 334 334 336 337 338 336 336 335 334 331 329 328 327 326 325 323 321 318 318 323
299 296 297 299 299 301 300 301 301 304 302 307 307 315 325 328 330 330 330 331 332 334 335 335 335 336 336 335 333 333 334 336 336 335 336 335 334 335 333 332 331 332 325 327 324 324 325 322 325
299 299 300 300 300 300 300 302 301 302 303 305 311 321 325 326 328 329 330 331 330 332 335 336 335 334 334 334 334 333 332 334 334 335 334 335 334 333 332 330 330 330 330 326 326 326 326 324 322
300 300 300 302 300 301 302 301 301 301 305 305 313 322 325 326 327 329 331 332 329 330 332 332 330 328 329 329 332 332 332 333 334 333 333 333 332 331 331 329 328 328 327 325 324 324 322 320 318
302 301 301 301 301 300 300 301 301 303 303 305 313 320 325 326 326 326 326 327 326 328 330 327 326 328 328 328 329 331 332 332 332 332 331 329 330 329 327 327 326 325 325 324 324 321 316 314 314
301 298 299 300 300 299 299 298 298 301 302 302 308 315 322 324 326 324 327 326 327 324 326 323 325 326 327 325 326 326 328 326 327 328 328 326 326 326 326 326 325 325 324 324 321 317 314 310 309
297 297 294 298 301 300 301 296 301 301 301 302 302 305 315 321 323 323 322 322 322 322 320 322 321 324 326 324 323 323 322 321 320 320 322 323 323 324 324 323 323 325 323 322 319 316 311 308 307
295 291 292 296 299 300 300 297 302 301 300 301 301 301 306 316 317 314 313 316 317 318 318 319 322 323 323 322 321 321 321 320 320 319 318 319 320 321 321 320 321 323 322 320 318 314 310 307 307
291 291 292 293 297 299 297 297 299 298 298 297 298 299 301 307 312 308 308 309 312 315 318 319 320 320 320 319 318 318 316 317 316 316 315 316 317 318 318 318 318 318 317 317 316 313 310 308 307
294 293 292 294 297 297 296 296 297 298 299 299 300 301 300 303 305 306 306 308 309 312 314 316 317 318 317 316 314 314 312 312 312 312 312 313 313 314 316 316 316 316 314 314 315 313 310 307 307
294 292 292 295 296 297 297 295 296 298 297 298 300 301 302 304 305 305 306 307 308 310 312 313 313 309 309 311 310 309 308 309 308 309 311 311 311 312 312 313 313 314 313 313 312 310 308 307 307
294 292 292 292 295 296 295 294 295 297 299 300 300 301 302 303 304 305 306 306 307 307 307 307 307 308 308 308 308 309 310 310 309 310 310 311 311 311 310 311 312 312 311 311 313 311 308 307 306
292 295 295 293 293 291 294 289 294 294 296 298 299 301 302 303 303 303 304 305 305 306 308 309 309 309 309 310 309 308 306 305 307 308 308 308 310 310 309 309 309 310 310 309 310 310 309 307 305
295 296 295 294 293 292 293 291 293 295 294 297 300 301 302 303 302 302 303 304 306 307 308 309 309 309 309 308 308 307 305 305 306 306 306 307 308 309 308 307 307 307 308 309 308 308 306 306 302
298 296 294 293 292 288 290 290 291 293 294 298 300 300 300 301 301 303 305 306 306 308 309 309 308 308 308 308 308 307 304 304 303 304 304 305 305 306 305 303 304 304 304 303 303 302 301 301 300
298 292 287 287 287 286 291 289 291 295 297 298 298 299 300 301 302 303 304 305 306 306 306 307 307 306 307 307 306 306 304 303 303 303 303 302 302 303 301 301 302 301 301 301 301 301 300 300 298
294 293 287 280 282 285 289 287 291 297 299 299 299 300 301 301 302 303 304 305 306 306 307 307 306 305 306 306 306 305 304 303 303 302 302 301 300 300 300 300 300 300 301 301 301 297 297 294 292
294 291 294 287 285 285 288 291 296 296 297 298 299 300 300 301 303 304 306 306 306 305 306 306 305 304 305 306 305 303 303 302 301 301 300 299 299 299 300 300 300 300 300 298 297 295 293 294 294
296 297 290 289 282 280 286 287 290 293 295 296 298 299 301 301 303 305 306 306 306 307 307 307 307 305 305 305 303 300 301 301 300 299 297 297 298 299 299 299 299 298 298 298 297 296 295 294 294
294 292 291 291 288 283 280 286 295 295 296 297 298 299 300 302 303 304 304 306 306 306 306 305 305 304 304 303 300 301 300 299 297 295 296 296 298 299 298 296 296 295 294 295 296 295 295 294 293
295 292 291 286 284 286 286 285 296 297 297 298 298 299 301 302 303 303 304 304 304 304 304 304 305 305 304 300 300 300 299 296 294 294 295 297 296 296 296 296 294 293 293 294 293 291 291 290 289

GFSSGP_sfc_thetae_024.txt.gz
Theta_e
317 316 318 314 306 309 304 306 317 315 316 323 323 318 319 322 316 313 338 338 336 339 344 347 346 348 349 350 349 350 350 349 348 348 348 348 349 347 345 342 341 342 342 342 341 342 342 343 342
318 311 314 313 305 301 303 310 311 316 321 323 322 320 317 317 329 333 336 337 335 337 341 345 344 345 347 348 349 350 349 349 348 346 346 346 346 345 341 339 340 340 340 341 341 342 344 343 341
313 311 311 308 306 301 302 309 316 320 321 321 319 324 321 319 329 333 339 334 333 335 340 344 342 343 344 345 345 345 346 347 346 347 347 346 345 343 342 339 339 339 342 341 341 343 341 339 336
313 312 313 304 301 305 308 314 318 317 320 321 320 316 326 333 331 335 337 334 331 332 336 339 340 340 342 342 341 341 344 344 345 345 344 343 342 339 337 335 335 340 341 341 340 341 339 336 334
314 312 305 303 304 308 314 317 318 315 317 319 319 316 321 333 338 337 337 336 330 330 333 336 338 340 341 339 339 340 340 341 342 343 343 343 342 341 340 336 339 338 336 335 335 336 336 333 332
309 313 303 300 304 309 314 318 315 312 315 317 316 315 321 335 335 337 337 334 330 330 334 335 337 340 339 339 338 339 339 339 340 340 340 339 339 339 339 339 338 337 337 334 334 334 334 334 334
308 307 302 303 302 304 308 313 311 310 312 312 317 311 322 330 336 337 336 332 331 331 334 336 338 336 336 336 336 336 337 337 337 337 336 336 336 337 337 337 336 336 336 335 334 332 331 330 329
308 306 301 301 299 299 303 306 311 308 308 319 320 310 315 327 336 336 333 331 333 335 336 337 338 338 339 338 334 335 336 336 336 335 334 334 334 334 334 334 333 333 332 332 330 328 327 325 325
308 302 298 298 299 300 305 303 306 313 312 314 316 318 324 332 335 332 330 331 333 335 338 339 338 340 340 338 335 333 335 336 335 335 332 331 340 338 335 331 330 329 328 327 326 324 323 321 322
308 302 299 302 303 303 304 304 305 307 307 309 315 321 328 334 333 330 327 328 330 334 337 340 342 341 342 336 339 340 338 341 341 340 340 341 341 339 334 332 328 328 326 325 324 321 319 320 326
306 301 303 303 305 306 304 304 306 305 303 307 307 316 327 331 332 331 329 327 329 334 336 339 342 344 341 338 338 336 337 340 342 342 341 341 339 341 338 337 335 336 328 330 327 326 325 324 326
302 304 304 304 305 305 304 306 304 306 307 310 313 319 325 327 328 329 327 326 329 332 335 340 342 342 341 335 335 337 335 338 337 341 341 340 336 337 336 334 333 333 331 331 328 327 328 326 325
305 306 307 306 306 306 306 305 305 306 309 310 315 321 322 324 325 327 328 327 328 329 333 339 342 339 334 335 337 338 337 336 337 338 339 339 334 333 333 332 331 329 329 327 327 326 326 324 322
307 307 306 307 306 306 304 305 306 307 309 309 313 317 322 323 323 326 328 328 330 332 334 339 338 334 333 332 336 336 338 336 336 335 334 337 336 333 330 327 326 325 326 325 325 325 324 320 318
307 304 306 306 306 306 306 303 303 308 308 307 311 315 320 322 325 325 326 327 329 331 334 337 336 333 332 331 332 332 333 333 331 330 332 333 333 330 329 325 324 323 324 327 327 325 323 320 317
304 304 299 304 306 306 307 301 306 309 307 308 309 310 317 322 324 326 327 329 331 333 332 334 331 330 331 330 330 330 329 328 326 326 327 328 328 329 327 323 323 324 324 324 323 322 320 319 316
301 297 296 299 305 305 304 301 307 307 305 307 309 311 311 316 323 326 327 329 329 330 331 332 333 331 329 328 328 328 327 326 325 326 324 324 325 325 325 323 323 324 323 322 322 320 320 317 315
295 296 297 297 302 304 302 302 304 306 306 306 307 308 309 311 318 323 322 323 323 325 327 329 330 328 327 328 327 325 324 324 324 322 320 321 320 321 322 321 321 322 321 320 320 320 320 318 315
299 297 297 299 302 302 301 300 302 305 307 307 308 308 309 311 314 314 315 316 316 319 321 323 323 324 324 324 321 320 318 318 318 318 318 319 319 319 319 318 319 320 319 320 320 319 318 317 317
299 297 297 300 301 302 301 300 302 304 304 306 307 308 310 311 311 312 314 315 316 317 317 318 316 316 316 318 317 316 315 316 317 318 319 319 318 317 316 317 316 317 317 318 318 318 316 316 316
299 297 297 297 301 302 301 299 300 302 305 306 307 309 309 309 309 310 312 314 315 315 315 315 316 316 316 317 317 318 318 317 315 315 314 315 314 314 314 315 315 315 315 314 316 316 315 312 315
296 300 300 299 298 295 301 294 297 300 302 304 307 309 310 310 310 310 311 312 314 315 316 316 315 315 315 316 315 314 312 310 312 312 313 312 313 312 312 312 313 314 313 313 313 313 314 313 310
299 302 300 299 299 298 298 296 297 300 299 302 305 307 308 309 309 309 310 312 313 315 316 316 316 315 315 315 314 313 311 312 312 311 311 311 311 310 310 311 311 311 311 311 312 312 312 311 310
303 301 300 301 300 293 296 296 296 298 299 302 305 306 307 309 309 310 312 313 313 315 315 315 314 313 313 313 312 310 309 309 309 308 306 306 307 307 308 309 309 309 309 308 308 308 307 307 306
303 299 294 291 292 291 296 294 297 299 301 303 303 305 307 309 310 310 310 311 312 313 314 313 313 311 311 311 310 310 309 308 307 306 305 304 304 305 306 307 307 307 307 306 304 302 301 299 297
299 298 293 284 287 291 295 291 296 301 303 304 305 305 307 308 309 309 310 311 312 312 312 313 312 310 310 309 309 310 309 308 307 306 305 304 304 304 306 306 305 304 304 302 301 302 297 294 293
299 297 299 292 291 290 294 296 300 301 301 302 303 304 305 307 307 308 310 311 312 312 312 312 311 310 310 309 310 309 308 307 306 305 304 303 304 303 304 304 303 303 301 301 301 299 298 297 297
301 301 295 297 287 283 290 292 294 297 300 301 302 303 305 306 307 309 309 310 310 311 312 312 309 308 309 309 310 307 307 307 305 304 301 302 303 303 301 301 299 297 297 296 298 297 297 296 296
299 298 297 297 294 288 285 290 301 300 302 300 302 303 305 306 307 307 308 309 310 310 309 307 307 308 308 309 307 307 306 305 303 301 301 301 301 299 297 297 295 294 294 295 295 295 295 294 294
300 297 296 292 288 292 290 289 301 301 302 302 302 303 306 306 306 307 307 308 307 307 305 306 307 306 305 305 305 304 304 303 301 300 300 300 298 298 296 294 294 295 295 295 295 294 293 292 292

GFSSGP_sfc_thetae_027.txt.gz
Theta_e
324 319 320 317 307 309 307 310 316 314 316 323 321 320 318 323 321 316 338 337 342 343 346 346 347 350 350 350 350 350 350 349 349 349 348 347 347 346 343 341 342 343 342 342 342 343 345 344 343
321 315 316 313 305 303 305 312 311 315 319 321 319 318 317 318 330 332 331 336 340 342 345 346 345 347 347 348 349 350 349 348 348 347 346 346 345 343 342 341 340 341 342 343 344 344 343 342 339
320 316 311 308 308 304 305 311 314 317 319 318 316 322 321 321 330 333 334 334 336 338 344 344 343 344 345 346 346 347 347 347 347 348 347 346 344 343 341 339 339 339 342 341 341 343 339 337 336
314 313 312 305 305 307 309 313 316 316 318 319 317 316 326 332 331 335 334 333 334 337 340 339 340 341 342 342 342 344 344 345 346 346 345 343 342 340 337 337 340 341 339 342 342 341 338 335 334
315 313 306 305 305 310 314 316 316 314 315 316 315 314 322 332 337 336 335 332 330 331 334 337 339 341 341 339 339 340 341 342 343 344 343 343 342 342 341 339 339 338 337 336 336 337 335 333 332
309 313 304 302 305 311 314 316 314 313 314 313 313 316 323 334 334 335 335 330 329 329 332 332 338 340 340 339 339 339 340 340 340 340 340 340 339 339 339 338 338 338 336 335 335 335 335 334 333
308 309 304 304 305 307 311 314 311 311 310 311 314 312 323 328 334 334 332 329 328 330 332 334 336 336 337 337 337 338 338 338 337 336 336 336 337 337 337 337 336 336 335 334 333 332 331 330 329
311 310 304 304 303 302 307 310 312 309 310 316 318 309 316 328 333 332 329 328 329 331 333 334 336 337 339 338 335 336 337 337 336 334 334 335 335 335 335 335 334 333 333 331 330 328 327 326 325
312 303 300 301 301 301 306 305 308 312 310 312 314 319 323 331 332 329 327 327 329 331 334 336 335 337 336 335 335 334 336 337 335 335 333 333 338 337 336 332 331 329 328 327 326 325 324 324 325
308 304 302 305 305 304 305 306 306 308 307 309 313 318 327 329 328 325 324 324 327 330 333 336 338 338 338 332 335 336 334 337 337 337 337 336 337 336 331 333 330 329 329 328 327 325 324 323 325
307 303 304 304 306 307 305 305 307 306 305 309 310 314 323 326 326 325 324 324 326 330 331 333 339 339 337 334 333 333 334 335 336 338 337 337 335 336 334 334 335 336 330 331 328 327 326 325 325
303 305 305 305 306 306 305 307 305 307 308 312 314 318 321 322 323 324 325 325 325 329 330 333 338 338 336 333 331 331 331 334 333 336 337 335 332 333 333 330 330 330 329 329 329 327 327 328 326
304 305 306 307 307 308 308 306 305 307 311 312 314 318 320 322 323 325 326 325 326 326 328 333 339 340 333 332 332 333 333 333 335 335 335 334 331 331 330 330 328 327 327 326 325 325 324 325 324
308 308 308 308 308 308 306 306 308 309 311 311 313 316 319 320 322 323 324 324 325 326 329 332 338 340 332 330 332 332 334 333 333 333 332 332 332 330 328 327 325 324 324 324 324 322 322 322 321
309 305 307 308 309 308 309 304 305 310 311 310 312 314 318 319 321 322 325 326 326 327 329 332 337 339 333 330 330 329 330 329 329 329 329 329 329 328 327 325 324 323 324 328 324 324 323 322 321
306 306 302 306 307 308 308 302 307 311 310 310 311 314 316 319 320 323 324 325 326 327 328 331 333 335 335 329 330 329 328 327 326 326 327 326 327 327 327 324 323 324 325 323 322 321 320 320 319
304 299 299 302 307 306 306 303 309 310 310 309 311 312 313 317 321 323 325 327 327 328 329 330 333 335 334 330 328 329 327 326 325 326 324 324 325 325 324 323 323 325 322 323 323 322 323 319 319
298 298 299 299 304 304 303 304 307 309 309 309 311 312 313 313 318 323 326 325 325 327 329 330 331 332 331 330 329 325 324 324 324 322 321 321 321 322 322 321 322 323 321 322 322 324 321 321 320
301 299 298 302 304 303 303 303 305 308 309 309 310 311 312 315 319 319 320 321 321 322 322 327 328 328 326 326 322 321 319 320 319 319 321 321 321 320 320 319 319 321 319 321 323 322 321 320 322
301 300 300 302 304 303 303 302 305 307 307 309 310 310 311 312 313 315 317 319 319 319 320 321 321 320 319 319 319 319 319 319 319 321 320 319 319 318 316 316 315 315 315 318 319 320 317 319 321
302 300 300 299 303 304 303 301 302 305 307 309 310 310 311 311 311 313 315 317 319 318 318 318 318 318 318 319 319 318 318 318 316 317 317 317 317 315 315 314 313 314 315 314 316 316 315 313 316
299 302 302 301 300 297 304 295 301 303 304 307 309 311 311 311 312 313 314 315 317 318 319 318 318 317 317 319 317 317 315 314 316 316 315 315 316 313 312 311 312 312 312 313 313 312 315 314 310
301 305 303 302 301 300 300 296 300 303 301 304 307 309 311 312 313 313 313 315 316 318 318 318 317 316 317 317 317 316 314 313 313 313 312 311 311 310 309 310 310 311 310 312 311 311 310 309 308
306 304 304 303 302 294 298 298 297 300 303 304 306 308 310 311 312 313 314 315 315 318 318 318 316 315 315 316 315 313 312 310 309 309 308 308 308 308 308 308 308 309 309 309 308 308 306 305 304
305 302 295 293 293 292 300 296 299 303 305 306 305 307 309 311 312 311 312 313 314 314 316 316 315 314 315 314 313 312 311 310 309 308 307 306 305 304 305 306 307 307 307 305 304 303 302 301 298
301 300 295 286 289 293 298 292 299 305 306 307 307 308 309 309 311 311 311 313 314 314 315 316 314 312 312 313 312 312 311 310 309 309 307 305 304 303 305 306 305 304 302 301 301 300 299 298 295
301 299 302 295 296 291 294 299 303 304 304 305 306 307 307 308 309 310 311 313 312 312 313 314 312 311 311 311 312 311 311 309 308 308 306 304 303 303 305 302 298 297 298 298 297 297 297 298 298
302 304 296 299 286 285 292 293 295 299 302 304 305 306 307 308 309 310 311 311 311 312 312 312 310 309 310 310 309 308 308 308 307 306 303 303 303 303 301 298 297 297 296 296 297 296 296 295 295
300 300 299 298 295 288 286 291 302 301 303 304 304 305 307 308 309 309 310 311 310 310 310 309 309 308 307 305 305 305 305 305 305 303 302 302 301 299 299 299 297 296 297 297 297 297 296 294 294
302 299 299 293 290 294 292 290 303 303 304 304 304 306 307 308 308 307 308 308 308 308 307 307 306 303 302 302 302 302 303 303 302 301 299 300 300 300 299 298 298 297 297 296 295 294 293 293 292

GFSSGP_sfc_thetae_030.txt.gz
Theta_e
320 316 317 313 303 304 301 308 315 313 314 319 320 317 318 322 321 313 334 339 344 342 345 347 348 350 351 351 351 350 350 351 351 350 350 349 348 345 344 345 345 345 344 344 345 345 345 344 342
316 317 315 308 300 298 304 311 311 314 316 316 318 316 319 318 328 327 330 339 341 344 343 345 346 347 348 349 350 350 350 350 349 349 348 348 346 344 342 341 342 342 343 343 344 344 343 341 338
319 315 306 303 301 297 303 311 313 314 317 316 315 322 321 321 328 327 333 337 340 342 341 341 343 344 346 347 348 348 348 349 349 349 348 346 344 343 341 340 342 342 341 342 343 341 338 336 336
313 311 307 300 301 308 309 312 313 313 316 317 317 316 324 330 328 329 332 334 337 338 339 338 339 341 343 344 345 345 345 346 346 346 345 344 343 341 339 343 341 340 339 341 341 339 337 335 335
313 309 300 302 305 309 313 314 314 312 313 313 316 316 320 329 330 330 329 331 331 334 335 335 338 340 341 341 340 342 343 344 344 344 343 342 342 341 341 340 339 338 337 336 336 335 335 334 334
305 308 300 300 304 309 312 314 314 313 313 311 314 318 321 331 330 331 329 328 328 329 330 332 339 340 340 340 340 340 340 340 341 341 340 339 339 339 339 338 338 338 336 336 335 335 334 333 333
303 302 300 304 304 307 310 314 310 310 310 310 313 314 322 327 331 331 327 326 327 328 329 331 333 336 337 337 337 337 337 337 337 337 337 338 338 338 337 337 336 335 335 334 333 332 330 329 329
307 305 302 304 302 303 308 310 312 310 309 313 317 311 315 326 330 328 326 325 326 328 329 332 332 334 334 334 335 336 336 335 335 335 335 335 335 336 336 335 334 333 332 331 330 328 328 327 327
311 304 301 301 302 301 306 305 308 312 308 311 317 316 325 328 329 325 323 323 325 328 333 334 334 337 338 335 335 335 336 335 334 334 333 332 335 334 335 332 332 331 329 328 327 326 326 326 327
306 302 300 304 305 302 304 304 306 308 306 308 313 323 327 327 325 322 321 322 324 328 330 335 336 337 336 329 333 335 335 335 335 335 334 335 333 333 331 332 331 331 330 330 329 329 328 326 321
306 301 304 304 305 306 304 304 308 306 304 309 308 318 323 324 323 322 321 323 325 329 331 333 339 338 336 334 332 333 334 335 336 335 334 335 333 334 333 330 329 329 331 329 328 326 324 324 322
302 304 304 305 306 305 303 305 304 306 307 311 313 316 321 321 321 321 321 322 324 327 329 333 337 337 334 331 331 332 330 334 332 335 335 334 331 331 329 328 327 327 327 326 323 323 324 322 324
303 303 305 306 306 307 307 305 305 306 309 312 315 316 319 319 320 323 324 325 325 327 328 332 337 337 334 330 332 333 331 333 333 332 334 332 329 329 328 326 325 324 323 321 321 319 320 320 321
306 306 306 307 307 307 304 305 306 307 310 310 312 315 318 320 321 323 324 323 324 326 328 334 336 339 332 329 331 331 333 332 332 330 330 329 329 328 326 324 323 321 321 320 319 318 319 318 319
308 304 306 306 307 306 307 303 303 309 310 309 310 312 316 318 320 321 323 323 324 326 329 332 336 339 333 330 330 328 328 326 326 327 327 326 326 326 324 323 322 321 322 321 321 320 319 318 318
303 305 300 305 307 308 306 300 305 310 309 308 309 312 314 318 319 321 324 325 326 326 327 331 332 337 335 332 329 327 326 326 325 324 324 324 324 324 323 322 321 322 322 320 319 318 317 316 315
303 298 300 302 307 306 305 302 307 311 309 308 309 311 313 315 318 321 323 324 326 328 328 329 331 333 334 333 328 328 326 324 325 324 323 324 322 323 321 319 320 322 319 319 318 316 316 314 314
297 297 299 299 303 303 302 302 306 309 308 309 310 312 311 313 317 321 322 324 324 327 329 329 330 333 333 330 327 325 323 323 324 322 320 321 319 321 319 318 318 319 317 316 316 316 316 315 315
301 299 298 301 304 301 301 302 304 307 308 309 309 311 312 313 316 318 320 322 322 325 325 326 324 326 325 325 321 319 318 318 318 319 320 319 319 318 316 315 315 314 313 313 313 312 311 312 314
300 299 299 302 304 302 303 302 304 306 307 309 309 310 310 311 313 315 317 319 318 319 320 320 319 319 318 318 318 317 317 318 318 319 317 318 318 316 314 313 312 312 310 310 310 310 309 309 310
301 299 300 299 303 304 301 300 301 305 307 308 309 310 311 311 311 314 315 316 318 318 318 317 317 318 318 318 317 317 317 317 315 316 316 315 316 315 314 311 310 310 309 307 307 307 306 305 307
298 304 302 300 299 294 303 292 299 302 303 306 308 310 309 310 312 313 314 315 317 318 319 318 318 317 317 318 316 316 314 311 312 312 313 312 312 311 309 309 308 307 308 306 306 307 306 304 302
301 304 302 301 299 298 298 295 299 302 300 304 307 308 310 312 312 312 313 314 315 318 318 318 317 316 317 316 315 313 311 310 310 309 309 308 309 309 308 306 305 305 305 305 305 304 302 302 300
305 303 303 303 300 293 298 296 295 298 301 304 306 308 309 310 311 312 314 315 315 319 318 318 316 315 316 314 314 312 310 309 307 307 306 306 306 305 304 305 304 305 304 302 302 301 301 300 298
304 300 294 293 293 292 300 296 298 303 306 306 306 307 309 311 312 312 311 312 314 315 316 316 315 313 313 313 313 312 310 309 307 307 306 305 303 302 301 303 302 301 300 300 300 300 298 298 296
301 299 296 286 288 292 299 292 297 305 306 307 308 308 309 310 312 312 312 313 313 313 313 313 313 311 310 310 311 311 311 309 307 307 305 303 301 300 301 301 299 298 299 298 298 297 297 297 296
300 298 301 294 298 292 293 298 303 304 304 305 306 307 307 308 311 310 311 312 312 311 312 312 310 309 309 310 310 308 308 307 306 306 304 302 301 302 300 298 297 297 296 297 297 296 295 295 294
301 302 295 299 286 285 290 292 294 299 301 304 304 306 307 309 310 311 311 311 312 312 311 312 309 308 307 306 304 302 303 304 303 303 301 300 300 300 298 298 297 296 295 295 295 295 295 295 293
299 298 298 297 295 288 286 290 300 300 303 303 305 306 307 308 308 309 309 310 310 310 309 307 307 305 302 301 301 301 302 302 302 301 299 299 299 299 298 298 296 296 297 296 294 293 293 293 293
301 298 298 294 290 294 292 290 303 302 304 304 304 305 307 308 308 309 309 308 308 307 306 305 304 300 300 300 300 300 301 301 300 299 299 299 298 298 298 297 297 297 295 295 293 292 292 291 290

GFSSGP_sfc_thetae_033.txt.gz
Theta_e
316 311 309 307 297 296 293 300 310 309 308 317 322 320 318 319 315 312 337 340 341 342 345 347 347 349 350 350 350 350 351 351 351 350 350 348 346 346 345 344 345 346 345 346 346 345 344 343 341
316 314 310 302 294 290 296 308 306 307 311 319 320 321 317 315 324 326 332 339 341 342 344 345 345 347 348 349 349 349 350 350 349 349 349 347 345 344 343 342 343 345 343 343 344 343 341 339 338
315 313 300 296 293 291 299 306 306 309 313 315 314 319 320 316 323 325 338 339 339 338 340 342 343 344 346 347 347 347 348 348 348 348 348 346 344 342 341 343 343 342 343 344 343 340 338 336 336
310 305 300 293 292 299 305 307 309 310 312 318 317 315 319 325 322 327 338 338 335 334 334 337 339 342 344 345 346 346 346 345 345 345 345 344 343 341 342 340 340 339 339 341 341 338 336 335 334
308 301 293 293 301 306 308 310 310 308 308 317 320 315 315 322 325 327 331 334 331 329 331 334 337 340 341 342 341 343 343 343 343 343 343 342 341 341 340 339 338 337 336 336 336 335 334 334 334
300 300 292 290 301 305 307 309 312 309 308 318 317 318 317 323 322 322 329 329 331 327 329 333 338 339 339 339 339 339 339 340 340 341 340 340 339 339 339 338 337 337 336 335 335 333 333 332 332
298 296 292 294 301 303 306 308 306 305 304 308 319 313 319 322 323 321 323 326 326 326 327 329 332 335 336 335 335 335 336 336 336 336 337 337 337 337 338 337 336 335 334 334 332 330 330 329 329
301 297 293 296 298 297 304 304 305 306 302 310 317 311 313 320 323 318 321 323 323 325 327 326 328 330 330 331 334 334 333 333 333 334 334 334 334 335 335 335 335 334 334 332 331 329 329 328 328
303 293 293 296 296 296 300 299 303 305 306 313 314 318 322 323 320 317 315 317 320 323 326 327 326 328 328 328 333 333 334 333 332 332 332 331 330 333 333 332 333 333 332 330 329 328 327 326 326
298 293 294 299 298 296 296 299 301 301 303 310 317 322 323 322 317 315 314 316 319 322 326 327 327 329 329 331 330 329 332 331 330 330 329 329 329 330 331 329 331 331 331 330 330 329 328 327 320
297 294 298 299 300 300 298 299 303 300 299 308 314 317 319 318 316 315 316 318 321 322 326 329 327 327 326 327 327 329 329 329 330 330 327 329 326 327 326 325 325 324 328 325 327 325 324 321 319
296 299 300 300 301 300 298 298 299 300 302 309 319 319 318 317 316 316 315 317 320 322 325 328 328 326 323 322 323 324 325 326 327 330 327 324 323 322 321 324 324 323 324 323 323 321 321 319 319
297 298 300 301 302 302 302 299 300 300 304 309 317 319 318 318 316 317 317 319 320 321 325 327 326 326 323 321 322 322 323 325 325 326 326 323 321 320 320 319 319 317 316 316 315 315 316 315 316
300 300 299 299 301 301 300 300 300 299 304 308 311 314 314 316 316 316 316 319 321 322 326 327 327 326 322 322 321 321 322 324 322 324 323 324 322 319 319 317 317 316 316 315 314 313 313 314 315
303 298 300 300 301 299 300 296 298 302 303 305 307 311 312 315 315 316 316 315 317 320 325 327 329 324 320 321 321 320 324 318 319 321 320 321 320 318 317 316 316 316 317 315 315 314 314 314 315
299 297 293 299 302 302 300 293 299 302 303 302 303 305 308 313 315 315 316 316 316 319 324 328 334 327 324 321 320 319 319 317 316 316 319 319 319 318 316 315 314 316 316 315 314 314 313 312 312
295 290 294 296 302 301 298 295 299 302 304 301 301 302 304 308 312 316 316 319 320 322 325 325 329 328 330 325 322 318 317 316 315 317 316 316 317 317 314 313 313 314 314 314 313 313 311 311 311
291 292 296 294 296 297 294 295 299 302 302 300 302 304 309 309 311 315 316 317 318 320 321 321 322 322 323 322 320 319 315 315 315 313 313 314 314 315 312 312 311 312 310 309 309 308 308 309 309
296 294 293 294 298 295 294 295 298 300 301 303 304 306 307 308 311 313 314 314 315 315 315 314 313 314 314 312 310 309 309 310 311 312 313 313 313 313 311 310 309 308 307 306 306 306 305 305 307
297 295 295 296 300 296 294 293 298 301 301 302 303 304 305 307 310 312 312 312 312 312 311 312 311 311 311 310 309 310 309 310 310 312 313 313 311 311 310 307 306 305 305 305 304 303 301 302 303
298 296 295 295 298 297 294 292 296 300 303 304 304 304 306 307 307 309 310 309 308 309 308 310 310 310 311 311 311 311 310 309 308 307 308 307 307 307 305 304 304 303 303 302 301 301 301 299 301
295 301 300 297 294 288 295 284 292 297 299 302 303 301 303 306 308 309 309 308 309 308 309 309 310 309 311 310 309 307 305 304 305 305 305 304 306 305 304 302 302 302 302 301 301 302 299 299 295
298 301 299 298 293 291 293 288 291 298 298 300 301 303 303 304 306 307 307 309 309 309 308 309 309 309 310 309 308 306 305 305 305 304 304 304 304 303 302 302 301 301 301 299 298 298 298 300 298
303 299 299 298 294 285 294 291 288 294 298 300 302 303 304 304 305 306 308 309 309 309 308 308 308 308 308 307 307 305 304 304 303 303 302 301 301 300 300 301 300 299 298 298 297 296 298 295 295
300 294 286 285 284 284 297 294 296 299 302 302 302 303 303 304 303 304 305 305 306 306 306 307 307 306 306 306 306 305 304 303 301 301 299 298 298 297 298 298 297 296 296 296 296 296 294 294 293
297 295 284 281 281 285 294 289 292 300 303 304 305 304 304 304 305 303 304 304 304 305 305 305 305 305 305 306 304 303 303 302 302 301 300 298 297 296 297 296 296 295 295 295 294 293 294 292 292
295 292 296 289 289 284 289 293 298 300 302 304 304 304 302 303 303 304 304 304 304 304 304 303 303 304 303 300 298 298 299 299 298 298 297 296 297 298 296 295 295 294 294 293 293 292 291 291 291
299 298 289 290 280 280 286 289 291 295 298 301 301 301 305 304 303 304 303 304 304 303 303 302 302 300 298 297 297 297 297 297 297 296 295 296 295 296 296 295 294 293 293 294 292 291 291 291 290
295 294 294 293 288 280 278 284 295 297 300 299 301 303 302 301 302 302 302 304 303 303 301 300 297 296 295 295 296 296 296 297 297 297 296 296 295 294 294 295 296 296 296 296 293 292 291 291 290
297 295 295 283 285 285 282 283 297 298 300 301 300 303 303 303 303 302 302 303 302 301 299 296 295 294 294 295 295 295 295 296 296 295 295 295 294 295 295 297 296 295 294 294 293 290 289 287 285

GFSSGP_sfc_thetae_036.txt.gz
Theta_e
314 309 309 307 297 295 290 295 309 307 311 319 321 318 315 317 314 309 336 340 343 342 344 346 346 349 349 350 350 351 351 351 350 349 347 347 345 343 342 342 345 346 344 345 344 344 343 341 339
313 313 308 300 293 287 295 303 309 314 318 320 320 320 318 316 326 330 332 341 342 343 344 344 346 347 348 348 349 349 349 350 349 348 346 344 343 342 342 343 344 344 342 344 344 341 339 338 336
312 311 299 295 291 288 297 304 306 313 319 316 315 320 319 316 328 330 337 340 341 340 341 343 343 345 347 347 347 348 348 347 347 347 345 344 342 343 342 341 342 342 343 343 342 340 337 335 334
309 302 299 292 290 293 303 306 311 314 317 320 318 313 318 323 325 335 337 338 335 333 336 338 340 343 345 346 346 346 346 345 345 345 345 343 342 341 340 339 338 338 338 339 337 336 334 334 334
306 300 293 290 294 304 307 307 311 311 315 316 317 312 313 328 336 335 333 334 331 329 331 334 337 341 344 344 344 344 344 343 343 343 343 341 340 339 338 337 337 336 336 336 335 335 333 333 333
298 298 291 290 298 306 306 308 311 315 316 315 314 314 313 329 330 331 332 329 329 328 330 333 338 338 339 340 340 339 339 340 340 340 341 339 339 338 337 337 337 336 335 334 333 332 331 330 331
296 295 290 294 300 302 303 306 309 314 314 315 320 311 315 316 326 327 327 325 325 327 328 329 332 334 335 335 335 335 336 336 337 337 337 337 336 337 337 337 335 335 334 333 331 330 330 329 329
300 296 292 295 301 298 302 303 303 307 305 321 321 312 311 316 322 323 323 321 322 323 326 326 328 329 329 329 333 333 333 333 334 334 334 334 334 334 335 335 336 334 333 332 331 330 329 328 327
301 292 289 292 296 299 300 301 303 308 312 314 314 319 320 317 318 318 317 317 319 322 322 324 326 327 327 328 331 333 333 333 332 332 332 330 330 331 332 331 333 334 332 331 330 329 327 326 326
297 291 293 298 300 296 297 300 301 307 313 313 315 320 320 316 316 315 315 315 317 320 323 323 324 325 326 330 329 328 330 329 328 328 328 328 326 327 331 330 331 332 330 330 330 330 329 327 320
296 292 296 298 298 299 299 300 301 304 306 315 314 316 316 314 313 314 315 317 318 322 325 324 326 326 325 326 326 325 327 327 327 327 326 326 328 326 328 323 325 322 327 323 325 324 322 321 319
294 297 299 298 298 298 298 298 299 300 306 319 319 319 316 313 313 314 314 316 319 322 324 326 325 326 323 324 325 326 326 326 327 327 326 323 322 320 322 322 321 321 321 321 321 320 321 319 319
296 297 298 300 300 297 299 297 299 300 309 320 320 319 317 315 315 315 316 317 318 323 325 325 324 322 319 320 320 322 323 325 327 326 325 321 320 318 318 317 316 315 314 314 313 314 313 312 313
298 297 298 298 298 299 299 298 298 298 311 316 318 316 317 316 316 315 314 316 318 324 324 324 323 322 319 320 320 319 322 322 321 324 323 321 320 317 317 315 315 314 314 314 313 312 312 312 313
299 295 297 297 297 296 299 295 295 299 312 315 316 316 316 317 317 316 315 316 320 324 325 324 322 320 320 320 320 319 322 319 321 321 320 321 319 318 315 314 314 314 315 314 313 312 312 312 313
297 295 291 297 299 300 298 291 296 299 303 307 311 313 313 312 314 313 313 314 320 324 324 324 326 322 323 322 319 317 318 315 316 318 317 318 318 316 314 313 312 312 312 312 311 310 310 309 309
293 288 291 295 300 298 296 293 298 298 300 299 299 306 308 309 311 313 316 317 319 321 323 325 325 323 324 324 321 317 315 313 314 314 315 316 316 316 312 311 310 311 309 308 308 306 307 306 305
290 289 293 292 295 296 294 294 296 298 301 302 304 305 307 308 308 312 313 314 314 314 317 318 319 322 323 321 318 313 312 310 312 311 312 314 315 313 310 309 308 307 306 305 304 303 304 303 303
294 292 292 292 296 294 292 293 295 299 302 302 303 304 305 306 309 310 312 312 313 314 313 314 314 314 314 312 311 309 308 308 309 311 313 313 311 309 306 305 305 304 304 303 303 302 301 300 302
296 294 292 295 298 294 292 292 296 298 300 303 303 304 305 306 307 309 309 310 309 311 312 310 309 309 309 309 308 309 308 308 308 309 307 307 305 305 303 302 302 302 301 301 300 299 299 300 300
296 293 293 293 295 295 293 291 295 299 300 303 304 305 306 306 306 307 308 307 307 306 307 308 308 308 308 309 308 307 307 306 304 304 303 304 304 303 301 301 300 300 301 299 299 298 297 296 297
293 299 297 295 291 286 293 283 291 294 297 300 302 303 304 306 307 307 306 306 306 305 306 307 307 308 309 308 306 305 303 302 302 301 301 302 302 301 301 301 300 300 300 298 298 299 297 299 297
296 299 296 296 291 289 291 286 288 297 295 297 298 301 303 304 306 306 306 307 306 307 306 306 307 307 306 306 305 304 303 303 304 303 302 301 300 300 302 301 299 298 298 297 296 295 295 295 293
301 298 297 295 292 284 291 289 285 291 296 298 300 301 302 303 304 305 306 307 306 306 305 305 304 304 305 305 304 303 302 302 301 301 300 299 299 299 299 299 297 296 296 295 295 294 293 292 292
298 292 284 283 283 282 294 292 291 298 301 300 300 300 301 303 303 304 305 305 305 304 304 304 304 303 304 304 303 302 301 300 299 299 297 297 296 296 296 296 295 294 294 294 293 292 291 291 290
294 293 283 281 280 283 293 287 290 298 302 302 303 302 303 303 303 302 303 304 303 303 303 303 302 303 304 300 298 298 298 298 298 298 297 296 296 296 296 295 294 294 294 294 292 291 291 291 289
293 290 294 287 285 282 287 290 296 299 302 303 303 306 305 304 302 303 303 302 301 301 302 301 301 298 297 297 296 296 296 296 296 296 295 295 295 297 295 294 294 293 293 293 291 290 290 289 289
296 296 288 287 279 279 284 287 289 294 297 299 299 300 302 305 304 302 302 303 301 301 299 298 296 295 296 296 295 296 295 297 296 295 294 293 294 294 293 293 293 292 295 295 292 291 291 290 290
293 291 291 290 286 280 277 282 294 295 297 297 300 303 303 301 301 301 302 301 300 298 296 294 295 294 294 296 295 294 294 295 295 294 294 294 293 293 293 294 294 294 292 293 292 291 291 289 287
295 293 292 282 283 283 281 282 298 298 300 300 300 301 300 300 300 300 298 298 297 297 295 294 293 295 294 294 294 294 293 295 294 294 294 293 292 293 293 293 293 292 292 291 289 287 286 284 283

GFSSGP_sfc_thetae_039.txt.gz
Theta_e
318 310 307 306 296 293 289 292 306 307 311 317 320 318 315 317 314 307 333 340 342 340 342 344 346 348 349 350 350 350 351 349 347 346 346 344 343 342 342 343 344 345 344 344 343 342 341 339 338
309 310 305 298 293 287 294 302 307 313 317 320 320 320 317 317 329 331 333 342 341 342 343 343 345 347 348 349 349 349 349 348 346 345 344 343 342 343 343 342 344 344 343 342 341 340 338 336 335
313 309 298 294 291 288 295 302 310 316 319 317 317 319 319 321 330 330 337 342 341 340 341 343 344 345 347 347 347 348 348 347 346 346 344 343 343 342 341 340 341 342 341 340 339 337 335 333 333
307 301 298 292 289 293 300 305 312 314 317 320 319 313 319 325 328 334 339 340 336 334 337 340 341 343 345 346 347 346 346 345 345 345 344 343 342 340 339 338 338 337 337 336 335 334 333 333 333
303 299 292 288 292 297 305 310 314 312 315 316 317 312 314 330 334 335 335 335 333 331 335 337 339 342 345 345 345 344 344 343 344 344 343 341 339 338 337 337 336 336 335 335 334 333 332 332 332
298 296 290 292 298 303 304 308 315 314 314 315 315 313 314 332 332 332 333 330 332 330 330 333 339 340 342 342 342 341 341 341 340 341 341 339 338 337 336 336 336 335 334 333 332 331 330 330 330
295 294 290 298 298 301 302 307 314 313 314 314 317 308 317 324 329 330 327 325 326 327 327 328 330 334 336 335 336 336 336 337 337 338 337 337 336 336 336 336 335 334 333 331 330 329 329 329 328
298 294 291 298 298 298 304 303 307 312 311 321 318 309 313 316 325 324 322 321 323 324 326 325 326 327 326 328 333 333 333 333 334 334 334 333 333 334 335 334 335 333 332 331 330 330 328 327 327
299 292 290 299 299 300 306 299 304 314 316 315 315 315 319 321 321 318 314 316 318 322 322 323 325 325 325 325 329 332 333 332 332 332 332 329 328 328 329 331 333 334 332 331 331 329 328 327 326
296 291 292 303 306 304 300 306 306 311 312 312 314 315 319 318 316 313 311 313 316 318 320 322 323 323 324 329 327 326 328 327 327 327 327 326 325 325 330 330 331 332 330 330 330 330 329 327 319
296 293 296 298 307 304 298 299 304 311 307 314 312 311 314 314 314 313 312 314 315 318 320 322 323 322 323 324 325 324 325 325 325 324 324 324 326 325 326 323 322 321 325 322 323 322 321 320 318
294 296 298 298 299 298 298 298 305 301 312 318 317 313 313 313 313 314 313 314 315 318 321 322 323 323 322 323 324 323 324 325 324 325 325 323 322 321 322 322 320 319 319 318 318 318 318 316 316
294 295 298 299 298 296 298 297 298 299 315 319 318 314 313 313 313 315 316 317 317 319 322 323 324 325 324 322 322 322 322 324 325 326 326 321 320 317 318 318 316 314 313 312 311 311 311 311 312
297 295 296 297 297 297 297 296 297 298 316 316 316 314 312 313 313 314 313 314 318 321 323 324 323 323 318 319 319 320 322 324 324 324 324 321 319 316 315 314 314 313 313 312 311 310 310 310 311
296 294 295 296 295 295 298 293 295 302 316 315 315 315 314 313 312 311 312 315 319 323 325 322 319 317 318 317 317 318 320 320 320 322 321 320 319 316 314 313 312 312 311 310 310 309 308 307 308
295 294 290 294 297 297 296 290 295 304 313 312 311 311 311 309 311 312 312 313 317 321 321 321 324 319 322 321 319 317 316 314 314 317 316 317 317 315 313 311 310 310 308 307 306 306 304 304 304
292 287 289 293 297 296 294 292 295 297 306 300 302 304 307 308 309 311 314 315 318 321 322 321 324 325 325 323 320 317 312 312 311 312 313 313 313 312 309 308 306 306 306 305 304 303 302 302 300
287 288 290 291 294 294 292 291 293 296 301 300 302 303 305 306 306 310 311 312 314 315 317 319 321 324 323 319 316 312 310 310 310 309 310 310 309 310 308 305 306 307 305 302 301 301 300 300 300
293 290 289 290 294 292 291 292 294 299 301 300 301 302 304 305 306 309 310 311 312 314 316 317 317 317 314 312 311 308 306 308 308 307 308 307 307 306 305 304 302 302 301 300 300 300 298 298 299
294 291 290 293 296 294 291 291 295 298 298 301 302 302 302 303 305 307 307 309 310 312 312 310 310 309 309 308 307 308 306 304 304 305 304 303 302 302 301 300 301 303 302 301 299 298 298 298 297
294 292 291 291 294 294 291 290 293 298 300 302 303 303 304 303 304 306 307 307 307 307 305 306 306 306 307 307 306 305 305 304 302 301 300 301 301 301 300 300 300 299 299 298 296 296 295 294 295
292 296 295 293 289 284 291 283 289 293 296 299 301 300 302 304 306 306 305 304 303 303 304 305 306 306 307 306 304 303 301 300 300 300 300 300 300 300 301 300 299 298 297 296 295 298 294 294 292
294 297 294 294 289 287 289 284 286 295 293 295 297 300 302 304 305 305 306 305 304 304 303 304 305 305 305 304 304 302 301 302 302 302 301 300 299 301 301 299 297 296 296 295 294 293 293 293 291
299 296 295 293 290 283 289 288 284 290 294 296 298 301 302 304 304 305 305 306 304 304 303 301 303 302 303 303 303 302 301 301 300 300 299 298 297 297 297 297 295 295 294 293 293 292 291 291 291
296 291 283 283 282 282 292 289 289 295 298 298 298 299 301 302 302 303 304 306 307 305 304 301 301 302 302 301 301 300 299 298 297 297 296 295 294 295 295 295 294 293 293 293 292 291 290 290 288
292 291 282 281 280 281 291 285 289 296 300 301 301 300 301 301 304 305 306 306 305 303 301 300 301 301 298 297 296 296 297 296 296 296 295 295 295 295 295 294 293 293 293 292 292 290 289 289 288
292 288 292 285 284 281 285 288 294 297 298 300 300 301 302 302 302 302 301 300 303 302 299 299 298 296 296 295 295 295 295 295 295 295 294 293 294 296 294 293 292 292 292 292 292 289 288 288 288
293 295 287 285 278 279 283 285 286 293 295 298 298 300 300 301 300 301 300 301 300 298 298 296 294 294 294 294 294 295 294 295 295 294 293 293 293 293 293 292 291 291 291 291 291 289 289 288 287
292 290 289 289 284 279 276 282 290 294 296 296 298 301 297 297 297 297 297 298 299 299 294 293 293 293 292 294 294 293 293 294 294 293 293 293 292 292 291 292 292 292 290 290 289 288 286 284 283
292 291 289 280 282 282 280 281 295 295 296 297 298 297 297 297 297 298 298 297 297 296 294 293 292 292 292 292 293 293 292 292 293 293 293 293 291 291 292 291 291 291 289 288 286 284 283 282 281

GFSSGP_sfc_thetae_042.txt.gz
Theta_e
315 306 305 304 296 292 288 292 304 307 311 316 320 317 316 319 315 307 335 339 340 338 341 344 346 348 349 349 350 350 349 348 346 346 346 344 343 343 343 344 345 345 343 342 342 341 340 338 337
307 307 302 297 291 286 291 299 307 311 316 320 320 321 319 319 329 330 332 341 340 340 340 343 346 348 349 349 349 349 348 347 346 345 344 343 343 343 343 343 344 345 340 339 340 339 337 335 335
310 305 295 292 290 288 291 303 310 315 318 317 315 319 321 323 330 331 339 341 341 340 340 342 344 346 347 348 348 348 348 347 346 345 343 343 343 342 341 341 343 342 340 339 337 336 334 334 334
304 298 294 290 287 292 299 306 314 314 317 318 317 312 319 329 329 335 341 340 338 338 337 339 341 344 346 347 347 347 346 345 345 344 344 343 341 339 338 338 339 338 337 336 335 335 333 332 332
299 294 289 286 289 295 299 311 315 312 314 314 315 310 315 329 335 338 338 336 335 334 336 338 339 343 345 346 345 345 344 343 344 344 343 341 339 338 337 337 336 336 335 334 333 332 331 330 331
295 293 287 289 294 300 303 311 315 313 315 315 315 313 318 331 332 334 334 332 333 332 333 336 341 342 343 343 343 342 342 342 341 341 341 339 338 337 336 335 335 335 333 332 331 330 329 330 329
295 290 288 294 295 299 302 312 312 312 313 313 316 311 323 329 330 330 328 327 329 329 328 329 332 337 339 338 338 338 338 338 338 338 337 337 336 336 336 336 335 333 332 331 330 330 329 329 328
296 292 289 297 297 298 302 310 312 314 312 318 319 313 318 324 327 325 324 323 322 322 324 323 325 327 326 329 334 334 334 334 334 335 334 333 333 334 333 333 334 332 332 331 331 330 329 329 328
297 291 293 296 301 301 305 310 308 315 315 315 315 317 321 324 322 319 316 316 317 321 321 322 323 323 323 324 329 332 333 333 332 332 332 329 327 327 327 331 332 332 331 331 331 331 329 328 325
294 289 293 304 305 305 307 302 308 312 312 312 310 318 322 321 320 316 313 313 315 318 320 321 322 322 322 327 326 324 327 326 326 327 326 325 324 324 328 329 331 331 331 330 329 329 328 325 320
295 292 295 302 309 309 305 304 306 311 307 312 310 315 317 317 315 313 311 313 315 316 319 321 322 321 322 323 323 322 323 323 323 324 324 323 324 323 324 323 321 320 324 320 321 320 319 319 317
294 297 297 302 309 305 298 300 308 304 309 316 315 317 316 314 312 310 310 311 312 315 318 321 321 321 320 321 323 322 323 323 322 323 323 322 321 321 320 321 320 318 318 315 314 313 313 311 312
294 296 297 298 300 298 299 296 306 299 314 315 314 316 314 313 311 311 311 312 313 315 317 320 321 321 321 320 321 321 321 323 322 323 324 323 320 319 318 318 316 313 311 311 310 310 311 310 311
297 295 296 296 295 296 297 296 297 301 314 312 312 312 313 312 312 312 312 313 314 316 319 320 321 322 320 319 319 319 320 321 323 324 324 322 319 316 315 313 312 311 311 310 309 309 307 306 307
296 294 296 295 294 295 296 292 292 304 314 312 310 310 309 310 309 309 310 312 315 317 320 321 319 317 318 316 315 316 319 320 320 322 321 319 318 315 313 311 309 309 308 307 306 305 305 304 305
295 292 288 293 296 295 294 288 293 309 312 309 310 311 308 309 310 311 313 311 315 319 319 320 323 320 320 319 317 316 315 314 315 315 315 315 316 313 310 308 306 306 306 305 304 304 303 303 301
291 287 288 291 295 295 293 290 293 306 309 303 303 305 306 306 308 308 311 313 315 319 320 321 323 322 320 321 316 315 313 313 313 312 310 310 311 310 307 305 305 305 306 305 305 303 300 299 299
286 287 289 289 292 294 291 289 295 298 301 300 301 303 304 304 305 308 310 314 315 318 320 322 323 322 318 317 317 316 313 307 306 307 307 308 308 308 306 305 305 304 302 300 301 300 300 298 299
291 289 288 289 292 292 289 291 294 298 299 299 300 301 303 304 305 307 309 311 315 315 318 321 321 320 318 315 311 307 305 305 303 304 305 304 304 303 301 300 300 300 300 299 300 299 297 298 298
292 289 288 291 294 292 291 291 294 297 298 299 299 300 301 302 304 306 307 308 309 312 315 314 312 311 310 308 307 304 302 301 301 301 301 301 300 300 300 299 299 299 299 298 297 296 295 296 296
293 290 289 290 291 292 291 288 292 297 300 301 301 301 302 302 303 305 307 307 308 306 304 306 307 307 307 306 305 304 303 302 300 299 299 299 300 300 299 299 299 298 297 295 294 294 293 292 294
290 294 293 291 288 285 289 283 288 293 296 298 300 299 300 302 304 304 303 302 302 302 303 304 305 305 305 304 303 301 300 299 299 299 299 298 299 299 300 299 298 296 296 294 293 295 293 292 290
293 296 293 292 288 287 288 284 286 293 293 295 297 299 300 302 302 302 302 303 303 303 302 304 304 304 304 303 303 301 300 300 300 300 299 298 298 299 298 297 295 294 295 294 293 293 292 292 290
297 295 293 291 289 283 287 287 284 288 292 295 298 300 302 302 303 304 303 304 303 303 301 302 304 303 303 302 302 301 300 299 298 298 297 296 295 296 296 296 295 294 294 292 292 291 290 290 290
294 290 282 282 282 281 289 287 288 292 296 298 298 300 301 302 302 303 303 303 305 305 302 302 302 302 302 300 299 298 297 297 295 295 295 295 294 294 295 294 293 292 292 292 291 290 289 289 288
291 290 282 281 280 282 289 284 289 295 297 300 301 301 301 301 302 302 305 304 304 302 301 301 302 299 296 296 296 296 295 295 295 295 295 294 294 294 294 294 293 292 292 291 290 289 289 288 288
291 287 290 285 283 280 283 288 293 295 296 298 299 300 299 300 301 301 300 299 299 299 299 299 297 295 295 295 294 294 294 294 294 294 293 293 293 295 294 293 291 291 291 291 290 289 288 288 287
291 294 286 284 277 277 281 283 285 291 293 296 296 297 299 300 298 298 298 298 298 298 297 294 294 293 293 293 293 294 293 293 294 293 293 292 292 292 292 291 290 291 291 290 290 289 288 287 287
290 288 287 287 283 278 275 281 289 294 296 296 297 299 296 295 295 295 295 296 295 293 292 292 293 293 292 291 292 292 292 292 293 292 292 292 291 291 290 291 291 291 290 290 289 288 286 284 283
291 289 287 279 281 281 279 280 293 292 295 296 296 295 294 295 294 294 294 296 296 297 297 294 294 293 291 290 290 290 291 290 290 291 292 292 291 291 290 291 290 291 290 289 287 285 284 282 282

GFSSGP_sfc_thetae_045.txt.gz
Theta_e
320 311 312 310 301 300 295 297 306 312 314 321 323 320 319 322 316 311 338 342 343 341 346 348 347 348 348 349 350 349 349 349 347 347 347 346 345 345 345 345 347 345 342 343 342 340 338 337 336
312 310 309 305 297 293 299 302 310 315 319 323 322 323 321 320 330 331 335 341 341 343 346 348 346 348 349 349 349 348 348 348 347 345 344 343 343 343 343 343 345 343 340 340 338 336 336 335 335
313 308 305 301 297 295 299 311 315 319 321 320 317 322 323 323 330 332 340 340 342 344 346 348 345 346 348 348 348 348 347 347 346 345 343 344 343 342 342 343 344 341 339 337 336 335 334 334 332
309 306 302 298 294 297 303 314 317 315 318 319 318 312 323 331 331 337 341 341 340 343 346 344 343 345 347 348 348 347 346 345 344 344 344 343 341 339 339 340 341 337 336 335 334 333 332 331 331
306 302 297 295 297 301 303 317 317 314 314 314 315 311 319 331 337 340 339 339 338 341 345 346 340 344 347 347 346 345 344 344 344 344 344 341 339 337 337 337 337 336 334 333 332 331 330 330 331
304 301 295 297 300 303 311 318 316 315 315 316 315 315 322 335 335 338 338 339 340 339 342 343 342 343 344 344 343 342 342 342 342 342 341 339 338 337 336 336 335 334 333 332 331 330 329 330 329
301 299 297 300 301 304 308 318 315 315 315 315 319 316 324 329 333 335 337 338 339 340 340 342 343 343 340 339 339 338 339 339 339 339 338 337 336 336 336 336 334 333 332 331 331 330 330 329 328
303 300 301 302 301 301 310 315 318 315 314 320 323 315 319 327 331 334 335 334 335 335 336 337 339 340 341 341 336 336 336 335 335 335 334 333 333 334 334 333 333 332 332 332 331 331 330 330 328
302 298 299 302 303 305 312 309 314 319 317 318 316 323 327 329 330 329 328 328 329 328 330 331 332 333 334 335 335 334 334 334 333 333 332 330 334 334 333 331 331 332 332 332 332 331 330 328 326
301 298 299 307 310 308 310 310 310 315 315 313 316 323 327 327 328 326 325 324 323 323 325 328 329 329 330 329 334 333 333 333 333 334 334 334 335 336 334 333 330 331 329 328 328 327 326 328 327
300 298 300 307 311 313 310 307 313 315 312 315 315 321 325 325 325 324 323 322 319 322 324 326 328 329 329 330 330 330 331 332 332 333 333 334 335 336 337 336 334 335 328 330 327 327 326 324 324
298 300 302 310 310 305 306 307 312 316 312 319 323 325 324 323 322 322 320 318 317 320 323 326 328 328 328 329 329 330 330 331 331 332 332 334 334 334 335 334 334 332 327 325 324 324 323 323 321
298 299 299 301 304 301 303 306 311 309 317 320 323 324 323 323 322 321 318 317 318 318 322 326 327 328 328 329 330 330 330 332 332 333 333 334 333 333 332 331 328 325 325 324 323 321 319 318 317
299 298 298 300 303 301 301 300 307 307 316 317 321 321 321 320 318 316 314 314 317 319 322 326 327 329 329 328 328 329 331 331 333 333 333 332 330 329 327 325 323 321 320 319 317 317 316 315 314
299 297 298 299 299 299 301 297 298 312 315 314 317 317 316 316 316 315 317 316 318 321 325 326 326 327 325 324 323 323 322 322 323 325 326 326 328 326 323 321 318 317 316 317 316 314 314 312 310
298 297 294 298 299 299 300 294 296 314 314 312 313 314 314 314 314 315 318 318 321 323 326 326 326 324 324 322 321 316 317 318 320 321 322 322 322 320 318 315 312 314 313 312 310 310 307 308 308
296 292 294 296 300 299 299 295 299 308 313 311 311 311 312 312 313 315 318 320 319 325 325 326 327 326 323 320 318 316 315 316 317 317 315 316 315 315 313 310 312 311 310 310 309 308 307 306 306
292 292 293 295 298 298 296 295 300 304 308 306 307 309 310 310 310 314 318 321 323 325 326 325 326 324 319 317 316 315 315 312 312 313 312 314 313 313 312 310 310 310 309 308 307 306 305 305 305
295 294 293 295 297 297 295 297 299 303 305 305 306 308 308 309 312 316 319 322 324 326 326 325 321 319 318 317 316 312 312 312 311 312 312 311 310 310 310 309 309 308 307 306 306 304 303 302 304
295 294 293 296 297 297 296 296 300 302 302 304 306 306 308 310 312 313 316 320 323 324 326 323 323 319 318 317 316 314 312 311 311 309 309 308 309 309 308 309 307 307 306 305 304 303 301 301 303
296 295 294 294 296 297 296 294 297 301 303 304 306 307 308 310 309 310 312 314 317 319 320 319 318 319 318 317 314 312 311 310 309 309 308 307 308 308 308 307 307 306 306 303 303 302 300 298 301
294 298 296 294 293 291 295 289 294 298 300 303 304 306 307 308 309 310 310 310 311 312 313 314 314 313 314 314 313 311 311 310 309 309 308 307 307 307 307 306 306 305 305 302 301 302 301 300 297
296 299 297 295 294 293 294 292 293 298 298 301 303 305 307 309 309 309 309 310 309 310 311 311 312 311 311 312 312 311 309 309 309 310 308 307 307 306 305 305 304 304 303 303 301 300 299 299 297
300 299 297 296 295 289 292 293 294 294 297 301 303 305 306 307 308 309 309 310 309 310 310 310 310 309 309 309 310 310 308 306 306 306 306 305 305 305 305 304 304 303 302 301 300 300 299 298 298
299 296 289 287 288 287 292 291 295 297 299 304 303 304 306 308 308 308 308 308 309 309 308 309 309 307 307 307 306 306 305 303 302 302 302 302 303 303 304 304 303 302 301 300 300 299 298 298 297
296 295 290 283 285 288 292 289 294 299 301 303 305 306 307 307 308 308 309 310 310 309 308 308 307 304 303 303 303 303 303 303 303 303 303 303 303 303 305 303 302 301 301 300 300 299 299 299 298
295 292 295 289 287 286 289 293 297 299 299 302 304 305 306 307 307 308 309 309 308 307 306 307 303 302 301 300 302 302 303 302 302 303 303 303 303 302 302 302 301 301 301 300 300 299 298 298 297
297 297 291 290 282 280 285 288 291 296 298 300 302 304 305 305 304 304 304 304 303 304 302 301 300 298 298 299 301 300 300 300 301 302 301 301 301 301 300 300 300 299 299 299 299 298 297 296 295
295 293 291 292 288 283 281 286 295 297 300 301 303 303 303 302 300 300 300 300 299 299 299 299 297 297 299 298 298 299 299 299 299 299 299 299 299 300 299 299 298 297 298 298 297 295 294 291 290
296 294 293 288 285 286 286 288 297 298 300 301 301 300 300 299 298 299 299 300 300 300 299 298 298 298 298 297 298 298 297 298 297 297 297 298 298 299 299 299 297 297 296 296 293 292 290 289 287

GFSSGP_sfc_thetae_048.txt.gz
Theta_e
322 318 317 317 307 305 303 304 316 318 318 325 325 322 322 326 320 315 340 343 345 344 348 349 347 348 349 349 350 350 350 349 348 347 347 347 346 346 346 346 346 343 343 341 339 337 337 336 336
316 314 315 314 302 299 301 306 312 319 324 326 324 324 323 322 331 332 337 343 344 344 347 349 346 347 349 349 349 350 349 348 347 346 344 344 343 343 343 345 344 342 340 338 337 336 336 334 332
316 314 310 306 302 299 302 309 320 322 321 318 315 322 322 323 332 334 342 343 343 345 347 349 345 347 349 349 349 348 348 347 347 345 344 344 343 344 344 343 343 339 337 336 335 334 332 331 330
313 312 310 301 299 303 310 319 323 320 322 322 318 315 325 333 331 338 341 342 342 345 347 346 343 346 348 349 348 348 346 345 345 346 344 343 340 339 340 340 340 337 335 334 332 331 330 330 331
314 311 302 300 300 304 317 321 321 317 314 313 317 311 319 334 339 340 340 340 341 344 347 349 341 345 347 348 347 346 345 344 344 345 343 340 338 337 338 338 337 334 333 332 330 329 329 329 330
307 309 299 298 302 307 313 322 320 317 315 315 316 316 323 336 338 339 340 339 341 342 344 346 344 344 345 346 344 343 343 343 343 342 341 339 337 337 336 335 334 333 332 331 330 329 330 329 329
306 303 300 302 304 308 316 321 317 314 316 317 321 316 325 332 338 339 340 341 341 342 343 345 346 345 342 340 340 340 340 340 340 339 339 337 337 337 336 335 334 332 332 331 330 330 330 330 328
310 306 304 306 305 306 319 319 320 314 316 325 325 316 320 331 336 339 340 340 341 341 341 341 342 341 342 343 338 338 338 337 336 336 334 334 334 334 334 334 333 332 332 331 331 331 331 329 327
310 303 302 305 307 310 316 312 317 321 319 321 322 326 331 332 337 337 337 337 337 338 339 338 336 338 338 337 338 336 335 335 334 334 333 331 336 336 334 331 332 331 331 331 330 329 327 328 327
306 303 302 310 315 311 311 311 311 315 316 317 322 331 334 333 335 333 331 331 331 331 330 332 333 333 333 329 334 335 333 332 335 336 336 337 339 339 336 334 330 330 328 328 327 326 327 328 328
306 303 306 311 316 315 312 310 314 313 311 318 319 328 331 333 333 332 331 330 328 326 326 329 332 333 332 331 332 331 331 333 337 338 340 340 340 342 341 341 338 339 330 332 330 330 330 328 328
302 305 308 313 314 312 309 312 311 315 315 320 325 331 331 331 330 330 329 325 321 323 325 329 331 332 333 331 331 332 333 336 336 339 340 342 341 342 338 337 338 337 333 331 331 331 330 329 326
303 303 309 312 312 311 315 310 312 315 320 325 330 330 329 328 327 329 325 321 321 322 326 330 332 331 332 334 334 336 338 338 339 341 341 341 341 339 337 335 334 332 331 330 329 329 325 324 322
305 304 308 305 310 307 309 310 312 314 321 324 327 326 326 324 323 324 321 319 320 322 326 331 333 334 334 334 336 336 337 336 338 338 339 338 339 333 331 329 330 331 327 326 324 322 321 321 320
303 299 301 303 309 308 309 305 304 315 320 321 321 323 323 323 321 319 318 318 320 323 328 331 333 335 335 333 331 329 328 329 330 332 333 335 335 332 330 330 327 322 323 322 322 320 319 317 316
301 302 298 302 308 304 306 299 303 318 317 318 320 321 321 321 320 321 322 321 321 324 328 331 332 333 331 331 330 327 326 323 325 327 328 327 327 326 323 322 318 319 318 318 317 316 314 314 313
299 295 297 298 304 303 303 300 304 315 317 316 318 319 320 319 320 322 324 326 325 328 330 331 332 330 327 322 321 321 322 323 321 321 320 319 318 319 317 317 317 317 317 316 314 314 312 310 310
296 296 297 297 301 304 301 301 304 314 316 315 316 318 319 319 318 322 325 327 328 331 332 332 331 326 322 323 322 321 318 316 317 317 318 319 318 318 318 317 316 316 315 313 312 310 309 308 307
300 298 297 300 302 302 301 302 303 311 315 314 316 317 317 318 321 324 326 328 330 331 330 331 329 327 326 323 319 317 316 316 317 317 317 317 316 316 317 316 316 315 312 311 309 307 306 304 306
300 299 298 300 301 303 303 303 305 309 312 315 315 316 317 318 320 322 326 328 329 329 330 330 329 329 330 328 324 321 319 318 317 317 316 316 315 315 315 315 314 312 309 308 307 306 303 303 304
300 299 299 298 300 303 303 300 303 305 310 311 314 316 318 319 319 321 323 327 329 329 329 329 329 329 327 323 321 320 318 317 315 316 315 314 314 314 314 313 311 309 308 305 305 304 303 300 302
298 302 301 300 299 295 301 293 301 305 305 308 311 314 316 316 318 318 317 318 321 324 325 324 325 324 322 322 319 316 316 314 316 318 316 316 315 314 312 310 309 308 307 305 304 303 303 302 298
300 303 302 300 300 299 298 295 300 304 303 306 310 313 316 317 317 313 314 316 317 319 319 320 319 318 318 318 318 317 315 315 316 317 313 313 313 311 309 308 308 307 306 305 305 304 303 301 299
305 303 303 302 300 293 297 296 296 301 303 307 311 313 315 315 315 314 315 316 316 318 319 318 317 316 317 317 317 316 314 310 310 309 307 307 307 307 307 307 307 307 306 305 304 304 303 301 301
304 300 293 291 291 290 298 296 297 303 304 308 310 312 314 313 313 313 313 314 315 316 317 317 316 314 315 315 313 311 309 307 306 306 306 304 304 304 305 306 307 306 306 305 304 303 302 301 299
300 299 293 283 287 292 297 293 300 305 306 309 312 313 312 312 314 314 314 315 315 315 316 315 314 312 311 310 308 308 307 309 307 306 306 305 304 305 306 306 306 306 305 305 304 302 301 301 300
300 297 301 294 294 292 296 298 302 304 305 307 310 310 310 312 313 314 315 315 316 316 315 315 312 309 307 305 305 304 306 306 305 306 306 306 306 305 305 305 305 305 304 304 303 301 300 300 300
302 303 295 297 286 284 290 292 295 300 303 305 308 308 311 312 313 314 314 314 315 314 313 311 308 304 303 303 303 303 305 305 305 305 304 303 303 303 303 303 303 302 302 302 301 300 299 298 298
299 298 298 298 294 287 286 292 302 302 305 306 308 310 311 312 311 311 311 311 311 310 308 306 305 303 302 300 301 304 304 302 301 301 300 300 300 299 299 299 300 300 300 300 300 299 297 295 295
301 299 299 292 290 294 293 291 301 304 306 308 309 310 312 311 309 308 308 306 306 306 305 302 305 302 300 302 302 300 300 300 299 298 299 299 298 299 298 299 299 299 299 299 297 296 295 293 292